ECMWFFLT1_925_thetae_003.txt.gz
Theta_e
317 317 318 318 318 319 319 319 318 318 319 319 319 320 321 321 322 322 322 323 326 326 324 325 325 326 327 326 327 326 327 328 328 328 327 326 326 326 326 325 327 328 325 325 326 326 327 329 327 321 315 313 313 314 315 316 317 319 318 319 320 321 323
316 316 317 317 317 318 319 318 317 317 317 318 318 318 319 320 319 320 320 322 323 323 323 323 323 324 325 324 326 326 327 328 327 328 328 327 327 327 326 325 324 323 320 320 323 324 324 326 328 324 316 311 311 313 315 316 317 318 318 319 319 320 322
317 318 318 317 317 318 319 318 316 315 316 317 318 318 318 319 319 319 321 321 321 321 321 322 322 323 322 323 325 326 325 326 326 327 327 327 327 326 325 324 321 318 315 314 315 318 318 318 321 320 313 311 313 313 314 314 314 315 315 315 316 316 316
318 318 317 317 318 318 318 318 316 315 315 315 316 317 317 317 317 318 320 320 320 320 320 320 320 320 320 322 323 323 321 321 322 324 325 325 325 323 321 320 317 314 313 311 310 311 311 311 315 314 310 309 311 311 313 314 313 312 313 312 311 311 311
318 317 316 317 319 319 318 317 316 315 315 313 313 313 313 312 312 312 315 317 318 319 318 318 318 317 318 319 319 318 316 316 317 318 320 320 319 317 315 314 312 311 310 310 310 310 310 310 310 310 308 309 311 309 311 314 313 311 312 312 309 307 308
317 316 315 316 318 318 317 317 315 314 314 314 313 312 312 311 310 308 309 311 312 313 313 314 314 313 313 315 316 314 312 311 312 312 313 313 313 312 311 310 309 309 309 309 310 309 309 308 308 309 308 308 310 309 309 311 312 310 308 309 309 305 306
317 317 315 314 316 317 317 315 313 313 313 313 313 313 312 310 308 307 308 309 309 309 308 306 305 304 305 307 308 307 306 306 306 307 308 309 309 308 307 307 307 307 307 307 307 308 307 307 308 308 308 307 307 307 307 307 309 309 306 306 308 305 305
317 318 315 313 312 314 315 313 311 311 311 311 311 311 311 309 309 309 310 309 309 308 305 302 302 301 302 302 303 303 302 302 303 304 306 307 306 304 302 302 302 303 302 302 302 304 305 307 307 307 307 309 309 308 306 306 306 307 306 305 306 306 305
315 317 317 314 311 311 312 312 310 309 309 309 309 309 309 308 309 311 310 310 310 309 307 305 304 303 303 303 303 303 302 301 302 303 303 304 304 302 302 302 301 301 301 300 300 302 305 306 306 306 306 308 309 311 311 311 309 307 306 305 305 306 306
315 317 317 315 313 312 312 311 309 309 309 309 307 307 308 308 308 310 310 311 312 311 311 310 307 304 303 304 305 305 303 303 302 302 302 303 304 304 305 304 303 304 304 304 304 305 305 306 305 305 306 306 307 310 313 314 312 308 305 306 305 305 306
318 318 317 316 314 313 313 312 310 309 309 309 308 307 307 307 307 308 309 310 312 312 311 311 309 306 304 306 308 307 307 306 304 303 303 303 303 304 306 305 303 304 305 306 306 306 306 306 306 306 306 307 307 308 309 311 312 309 306 306 305 305 305
319 318 318 317 315 314 314 313 311 310 309 309 309 310 309 307 306 307 308 310 312 312 311 311 310 307 306 307 308 308 308 308 306 305 305 304 304 304 304 305 303 303 304 305 306 306 305 305 305 305 306 306 307 307 307 307 309 308 305 305 305 304 304
318 319 318 317 316 315 314 315 313 311 310 310 310 310 311 310 307 306 306 309 311 311 311 310 310 309 309 309 309 309 309 308 307 307 307 307 306 305 304 305 305 305 304 304 304 305 305 304 305 305 305 306 306 306 306 306 307 307 305 304 304 303 303
318 319 318 317 317 315 314 315 315 313 312 311 311 311 312 312 310 307 306 307 309 310 310 310 310 310 310 310 310 310 309 309 308 309 309 308 307 306 305 305 306 306 305 304 303 303 304 304 305 305 305 305 305 305 305 304 305 304 304 303 303 302 301
317 318 318 317 317 317 316 315 316 315 314 312 312 312 312 313 312 310 307 306 307 308 309 310 310 310 309 310 311 310 310 310 309 309 309 310 309 308 307 306 305 305 305 305 305 304 304 304 305 305 305 305 305 304 304 303 303 303 302 302 301 299 298
317 318 318 317 317 318 317 317 316 316 315 313 313 313 313 313 313 312 310 309 308 308 309 310 311 310 309 310 311 311 311 310 310 309 309 309 310 309 308 308 306 305 305 305 305 305 305 304 305 305 305 305 305 304 304 303 302 301 300 299 297 296 295
318 318 319 318 317 317 317 317 317 316 315 314 314 314 314 314 314 314 313 312 312 311 311 311 311 312 311 310 310 311 311 311 310 310 310 310 310 309 309 309 308 307 306 306 306 306 306 305 304 305 305 305 305 304 303 302 300 298 297 296 295 295 295
318 317 318 318 317 317 318 318 317 317 316 315 314 314 314 315 315 314 314 314 314 315 315 314 314 314 313 312 311 311 311 311 311 311 310 311 310 310 309 309 308 308 307 306 306 306 306 306 305 305 305 305 305 304 302 300 298 296 294 294 295 295 296
320 320 319 319 318 318 318 318 318 318 316 315 315 315 315 315 315 315 315 315 315 316 316 316 316 316 315 314 313 313 312 312 312 312 311 312 312 311 310 309 309 309 308 307 307 307 306 306 306 305 305 305 304 304 302 299 297 296 295 295 296 296 296
320 320 319 319 319 319 319 318 319 319 318 316 316 316 316 316 315 315 315 315 316 316 317 317 317 317 316 316 316 315 314 313 313 312 312 312 312 312 312 311 310 309 308 308 308 307 306 306 306 305 305 304 304 303 301 300 298 297 296 296 296 296 295
319 318 319 319 319 319 319 319 319 319 318 317 317 317 316 316 316 316 316 316 316 316 317 317 317 317 317 317 317 316 316 315 314 313 312 312 312 312 312 312 311 309 309 308 308 307 307 306 306 305 305 304 304 303 301 300 299 298 297 297 296 296 296
319 318 319 319 319 319 318 319 318 318 317 316 316 315 315 316 317 317 317 318 317 317 318 318 318 318 318 317 317 317 317 317 316 316 315 315 314 313 312 312 312 311 309 309 308 308 307 306 306 305 304 304 303 302 301 300 300 299 298 297 296 296 296
320 319 319 319 318 318 318 318 317 317 317 316 315 315 315 316 317 316 317 318 318 318 317 317 317 316 316 315 315 315 316 316 316 316 316 316 315 314 313 313 312 311 310 309 308 308 307 306 306 305 304 303 302 302 302 301 300 299 298 298 297 297 296
321 320 320 320 319 318 317 317 316 317 317 317 316 316 317 317 317 317 318 318 318 318 317 317 317 316 317 317 317 317 317 317 317 317 317 316 316 316 315 314 313 312 310 309 308 308 307 306 305 304 303 302 302 302 302 301 300 299 299 298 297 297 296
321 320 320 319 318 317 317 316 317 318 318 318 318 318 317 317 317 317 317 318 318 317 317 316 317 317 317 316 316 316 317 318 318 318 318 318 318 317 316 314 313 311 310 309 308 307 305 305 304 303 303 302 302 302 302 301 300 299 299 298 298 297 297
319 319 320 319 318 317 316 316 318 319 319 318 318 317 317 317 316 315 316 317 317 317 316 316 316 314 312 311 309 309 311 313 316 318 318 318 318 317 316 314 312 310 308 308 307 305 305 305 304 303 302 302 301 301 301 300 300 300 299 298 298 297 297
317 318 318 318 318 318 317 317 319 318 317 317 317 317 316 317 316 316 316 317 317 316 314 314 313 311 311 309 307 306 307 311 314 317 318 317 316 315 315 313 312 309 307 306 305 305 306 306 304 303 302 301 301 301 301 300 300 299 299 298 298 297 297
315 316 316 316 317 318 318 318 317 316 316 316 316 316 317 317 317 316 316 315 314 314 313 312 312 312 311 309 307 306 309 312 315 316 316 315 314 313 312 312 311 308 306 305 305 305 305 305 303 302 302 301 301 301 301 300 300 299 299 299 298 297 296
313 314 313 313 313 314 313 313 313 313 314 313 314 314 314 314 314 313 313 313 313 312 312 312 312 311 311 310 308 308 310 312 313 314 313 312 312 311 311 311 310 307 306 305 305 304 304 304 303 302 301 301 301 301 301 300 300 299 299 298 297 297 296
309 309 308 308 309 309 309 309 309 310 310 311 311 311 311 311 311 311 311 311 311 312 312 312 312 311 311 310 308 308 310 310 311 311 311 311 310 310 310 310 309 307 306 305 305 304 304 304 303 301 301 301 301 301 300 299 298 298 297 297 296 296 295
309 308 307 306 307 308 308 308 308 307 308 308 308 308 309 309 310 311 310 310 311 312 312 312 312 311 311 310 309 308 309 309 309 309 308 308 307 306 306 306 305 305 305 305 304 303 303 303 302 302 301 301 300 299 298 298 297 296 296 295 295 294 294
309 309 308 306 307 308 308 307 307 306 307 307 307 307 307 307 309 311 311 311 312 313 313 313 312 311 310 310 309 308 308 308 307 307 306 305 305 304 303 303 303 303 303 302 302 301 301 301 301 300 300 299 299 298 297 297 296 296 295 294 294 293 293
308 308 308 307 307 307 307 307 307 306 306 306 306 306 305 305 307 309 311 312 313 313 313 312 311 310 309 309 308 308 307 306 306 305 305 304 304 303 302 302 301 301 301 301 300 300 300 300 299 299 298 298 297 296 296 295 295 294 294 293 293 292 292
306 307 307 308 308 308 308 307 307 307 307 306 305 304 304 304 305 307 309 311 312 312 311 311 310 309 308 308 308 307 306 305 305 304 304 303 303 302 301 301 300 299 299 299 299 298 298 298 297 297 296 296 295 295 294 294 293 293 292 292 292 292 291
305 305 306 306 306 307 307 307 308 308 307 307 306 305 305 305 305 305 307 309 310 310 310 309 308 308 307 307 306 306 305 304 303 303 302 302 301 300 299 299 298 297 297 297 297 297 297 296 296 295 294 294 293 293 293 293 292 292 292 291 291 291 291
304 304 304 304 304 304 305 305 307 307 306 307 306 306 306 305 305 305 306 307 309 309 309 308 308 307 307 306 305 304 303 303 302 301 300 299 299 298 297 297 296 296 296 296 296 296 295 295 294 293 293 293 293 293 292 292 292 291 291 291 290 290 290
304 304 304 304 304 304 303 303 303 304 304 305 306 306 306 305 305 305 306 306 308 308 308 308 307 306 305 304 303 302 301 300 300 299 298 298 297 297 296 296 296 296 296 296 295 295 294 293 293 293 292 292 292 292 292 291 291 291 291 291 291 291 290

ECMWFFLT1_925_thetae_006.txt.gz
Theta_e
321 320 320 320 320 320 319 319 318 319 319 319 319 319 322 324 323 320 320 324 325 324 324 325 325 325 326 325 326 325 326 326 327 327 325 324 324 323 323 326 326 325 324 324 324 324 326 329 324 315 310 312 314 313 312 312 312 314 315 316 318 320 321
319 319 319 319 319 319 318 318 318 318 319 319 319 319 320 321 320 318 319 322 323 323 323 324 325 325 325 325 326 326 327 327 327 327 326 325 325 325 324 323 321 321 321 322 321 319 321 324 323 317 312 311 312 311 310 309 308 308 310 311 313 314 316
317 318 319 319 318 318 318 317 317 317 317 318 318 318 319 319 318 318 319 321 321 321 322 323 323 323 323 324 325 326 327 327 327 327 327 326 326 325 324 321 316 316 315 314 312 312 312 313 314 313 310 309 312 312 310 309 307 307 306 308 310 310 311
316 316 317 318 318 318 316 316 317 316 317 317 317 318 318 317 317 318 319 320 321 321 321 321 320 321 323 323 323 324 325 325 326 326 326 325 324 323 320 318 315 314 312 310 308 308 308 308 311 311 308 308 310 311 311 309 307 307 306 306 307 307 308
313 313 315 317 318 317 315 316 316 316 317 317 318 317 317 317 317 318 319 319 320 320 320 320 320 321 322 320 319 319 320 323 323 324 323 322 320 318 315 313 312 311 310 309 308 307 307 306 308 309 307 308 309 309 310 309 307 307 306 305 305 305 305
313 312 313 315 317 318 316 315 315 315 317 317 317 316 316 316 316 318 319 319 319 318 318 318 318 319 319 317 316 315 315 317 318 318 318 316 314 313 311 309 309 308 308 308 306 305 305 303 304 306 306 307 307 307 308 308 306 306 306 305 304 304 304
314 313 312 313 316 318 317 316 315 315 315 315 314 313 312 312 311 314 317 316 316 315 315 315 315 316 316 315 313 310 310 311 312 311 311 310 309 308 307 306 305 304 304 305 304 303 303 304 305 305 305 305 305 304 305 306 306 305 306 305 304 304 303
315 314 313 313 315 317 316 316 316 314 314 313 312 311 311 308 307 309 310 309 308 308 308 308 308 310 311 309 306 304 305 306 306 307 306 305 303 302 302 301 301 300 301 302 303 304 305 305 306 305 305 307 307 305 305 305 306 305 305 305 304 303 303
316 315 314 314 315 315 314 314 314 313 314 313 312 312 310 308 307 307 307 305 303 302 302 303 304 305 305 304 303 303 303 303 303 304 303 301 301 300 300 299 299 299 301 303 304 305 305 306 307 307 306 307 309 310 310 309 307 305 305 305 304 303 302
316 314 313 314 315 314 313 313 312 312 312 312 312 311 310 309 309 308 308 306 303 302 303 304 304 303 304 304 304 303 303 302 302 303 303 302 301 301 302 301 301 302 303 305 306 306 306 306 306 307 307 306 307 310 313 312 309 306 305 304 303 301 300
315 313 313 314 315 314 313 313 312 311 311 311 312 311 310 310 310 310 309 308 306 305 304 303 303 303 304 304 304 303 302 302 302 303 303 303 303 302 303 303 303 304 305 306 306 306 305 305 305 306 307 307 306 307 309 310 309 306 304 304 302 300 298
315 313 312 314 316 315 313 312 311 310 310 311 311 311 311 311 311 311 310 310 310 308 307 304 303 304 306 305 305 304 303 302 302 303 303 303 303 302 302 303 304 305 306 305 305 305 305 305 305 305 306 307 305 305 305 306 307 305 304 303 300 297 296
316 314 313 314 316 316 314 313 311 309 309 310 310 310 310 311 311 311 311 311 311 311 310 308 305 306 307 307 307 306 305 304 304 303 303 303 304 303 302 303 304 304 304 304 304 304 305 305 305 305 306 305 305 304 304 304 305 304 303 300 297 295 296
318 315 313 314 317 317 315 314 313 311 310 309 309 309 309 310 310 311 310 311 312 311 311 310 308 307 308 308 309 309 307 306 306 305 305 304 304 304 303 303 304 303 303 303 303 303 304 305 305 305 305 305 304 304 304 303 302 302 301 298 295 295 296
318 318 316 315 317 317 317 316 314 313 312 311 310 308 308 310 310 310 309 310 312 312 311 311 309 308 309 309 310 309 309 308 308 308 307 307 305 305 305 305 305 304 304 304 303 303 304 304 305 305 305 305 305 304 304 303 300 298 297 296 295 296 296
316 319 318 317 318 318 317 317 316 314 313 312 311 310 309 310 311 311 309 309 311 311 311 311 310 309 310 310 310 310 310 309 309 309 309 308 308 306 306 306 305 305 305 305 305 305 304 304 304 305 305 305 305 304 303 301 299 296 295 295 296 296 295
316 318 318 318 318 318 318 318 317 316 314 314 312 311 311 311 312 313 311 309 309 309 310 311 310 310 310 310 310 310 310 310 310 310 309 309 309 308 308 307 306 306 305 305 305 305 305 305 304 304 305 305 305 304 302 300 299 298 297 297 296 295 295
317 317 317 317 317 318 318 318 317 317 315 314 313 312 312 312 312 313 313 311 310 309 309 310 310 311 311 311 310 310 310 310 311 310 310 310 310 309 309 309 308 307 306 306 306 306 306 305 305 304 304 304 304 303 302 300 300 300 299 298 296 296 296
316 317 316 317 317 318 318 318 317 317 316 315 314 313 313 313 313 314 314 313 312 312 311 311 311 311 312 312 311 311 311 310 311 311 311 310 310 310 310 310 309 308 308 307 307 306 306 306 305 305 304 304 304 302 301 301 301 302 301 298 297 297 297
317 318 317 317 317 317 318 318 317 317 316 316 315 314 314 314 314 314 314 314 314 314 314 314 313 313 313 312 312 312 312 311 311 311 312 312 311 311 311 311 310 309 309 308 308 307 307 306 306 306 305 304 303 302 301 301 302 302 301 299 297 297 297
318 319 319 318 318 318 317 317 317 317 317 316 316 315 315 315 315 315 316 315 314 315 315 314 314 315 316 315 314 314 313 314 314 314 314 313 313 312 312 312 311 311 310 309 309 308 307 307 307 306 305 304 303 302 301 301 302 302 300 299 298 298 298
318 319 319 319 318 318 318 317 317 317 317 316 316 316 315 315 315 315 315 315 314 314 314 314 315 317 317 317 316 315 315 315 315 315 316 315 315 315 314 314 314 313 312 310 309 309 308 307 307 306 305 305 304 302 302 302 303 302 300 299 299 298 299
319 319 319 318 318 318 318 318 318 317 318 317 316 316 316 315 315 315 314 313 312 313 313 314 316 316 317 316 316 317 317 316 316 315 316 316 316 316 316 316 315 315 315 312 310 309 308 307 307 307 306 305 304 303 302 303 303 302 301 300 299 299 299
319 319 319 318 318 318 318 318 317 317 318 317 317 316 315 314 314 315 314 312 312 313 315 315 316 317 317 316 316 315 315 315 316 316 317 317 317 317 317 317 316 316 316 314 311 309 307 307 307 306 305 304 303 302 302 303 303 302 300 300 299 299 298
317 318 318 317 317 317 317 317 317 317 318 317 317 316 315 314 314 315 314 312 313 315 316 316 317 317 315 313 311 309 308 310 311 314 316 317 317 318 318 317 317 317 316 315 313 310 308 307 307 306 305 304 302 302 302 302 302 302 301 300 299 299 298
317 317 317 317 318 317 317 317 317 318 318 317 316 316 315 315 315 314 314 314 315 316 317 317 317 314 311 310 308 306 306 310 312 314 315 315 316 316 317 317 317 316 315 315 313 311 308 307 306 304 304 303 301 301 301 301 302 301 300 300 299 299 298
317 317 318 317 317 317 317 317 317 317 317 316 316 316 316 315 315 316 315 316 316 316 317 316 315 312 310 310 308 305 306 310 312 313 313 314 314 314 314 314 314 314 313 312 311 309 307 306 305 304 302 302 301 301 301 301 301 300 300 299 299 298 297
318 318 318 317 317 317 316 316 317 317 316 316 317 317 317 317 317 317 317 316 316 316 316 315 312 311 311 310 308 306 306 308 308 309 311 311 312 312 312 312 311 311 310 309 308 307 305 305 305 303 302 301 300 300 300 300 300 299 298 298 298 297 297
315 316 317 316 316 316 317 316 316 317 317 318 318 318 318 317 317 316 316 316 316 316 315 313 312 311 311 310 309 308 307 307 307 307 309 309 310 311 311 311 310 309 307 306 304 304 304 304 304 304 302 300 300 299 299 299 299 298 298 297 297 297 296
312 314 315 315 315 316 317 317 316 317 318 318 317 316 316 317 316 316 316 316 316 314 313 312 312 311 311 310 309 308 308 308 307 307 308 309 309 309 309 309 309 307 305 303 302 303 304 303 304 304 302 300 299 299 299 298 298 297 297 296 296 295 295
310 311 313 314 315 315 316 316 316 317 317 316 315 315 315 315 315 315 315 314 314 313 312 312 312 311 311 310 309 308 308 308 308 307 307 307 307 307 307 307 306 305 304 304 303 304 303 303 303 303 302 300 299 299 298 297 296 296 295 295 294 294 294
307 308 309 310 311 311 310 311 312 312 312 312 312 313 312 312 312 313 313 312 312 312 312 312 311 311 310 310 309 308 308 307 307 307 306 306 305 305 305 304 303 303 303 303 303 302 302 301 301 301 300 299 298 297 296 295 295 294 294 294 293 293 293
306 307 307 307 307 307 307 307 307 308 308 308 308 309 310 311 311 312 312 312 312 312 312 311 310 310 310 309 308 307 307 307 306 306 305 304 304 303 303 302 301 300 301 300 300 300 300 299 299 298 298 297 297 296 295 294 294 293 293 293 293 293 292
305 306 307 307 306 306 306 306 306 306 306 306 305 306 307 308 309 310 311 312 312 312 311 311 310 310 309 309 308 307 307 306 305 305 304 302 302 301 301 300 300 299 299 299 299 298 298 298 297 297 296 296 295 294 294 293 293 293 292 292 292 292 291
303 304 305 306 307 307 306 306 306 306 306 305 305 304 304 304 305 306 307 308 308 309 309 309 309 310 310 309 309 308 307 306 305 304 303 301 301 300 299 299 298 298 297 298 297 297 297 296 296 295 294 294 293 293 293 292 292 292 292 292 291 291 291
303 303 304 305 305 306 306 306 307 306 305 305 304 304 304 304 304 304 304 304 304 305 306 307 308 309 309 309 308 307 306 305 304 303 302 300 299 299 298 297 297 296 296 296 296 295 295 294 294 293 293 293 292 292 292 292 292 291 291 291 291 291 290
303 303 303 303 304 304 304 305 306 307 306 306 305 305 305 305 304 304 303 303 304 304 305 306 308 309 308 307 306 305 304 303 302 301 300 299 298 297 297 296 296 296 295 295 295 294 294 293 293 292 292 292 292 292 291 291 291 291 291 290 290 290 290

ECMWFFLT1_925_thetae_009.txt.gz
Theta_e
321 320 319 320 320 319 319 318 318 318 318 319 320 322 323 322 321 321 323 324 323 323 325 326 327 327 327 327 327 327 327 327 328 327 326 326 326 326 326 326 326 325 324 325 326 325 321 316 314 314 312 310 310 310 311 311 311 312 313 313 313 314 315
320 319 319 319 319 319 318 318 318 318 318 318 319 322 324 322 318 318 321 323 323 323 324 324 325 326 326 327 327 327 326 327 328 327 327 326 326 326 326 326 326 325 323 322 322 321 318 314 313 315 314 312 311 310 310 310 309 309 310 310 310 311 312
319 319 319 318 318 318 318 318 318 318 318 318 318 320 321 320 318 319 321 323 323 323 324 324 324 325 326 327 327 327 327 327 327 327 326 326 326 326 325 324 323 322 320 318 316 314 313 313 314 315 316 315 312 311 311 309 308 308 308 308 308 309 309
318 317 317 318 318 317 317 317 317 317 317 317 318 318 319 318 318 319 320 322 322 322 322 323 323 324 324 325 326 327 327 327 327 327 326 325 326 324 321 320 320 318 317 316 313 311 311 312 314 315 315 314 312 310 310 310 308 307 307 307 307 307 308
317 314 314 316 317 317 317 316 316 316 317 317 317 317 317 317 317 319 320 321 321 321 321 321 322 323 322 323 324 325 326 326 326 325 325 323 321 318 316 316 315 314 314 312 310 310 310 311 313 315 314 313 312 310 309 310 309 307 307 306 306 306 307
316 313 311 313 315 316 316 316 316 316 317 317 317 316 316 317 317 319 320 320 320 320 319 320 321 319 318 318 319 321 322 324 323 322 321 319 316 314 312 311 310 310 308 307 306 307 308 310 313 314 314 313 312 310 308 309 308 307 306 305 305 305 306
315 312 311 311 314 316 315 315 315 316 317 317 316 316 315 317 318 318 319 318 318 318 318 319 319 317 317 316 316 316 317 318 318 317 316 314 312 310 308 306 305 304 303 303 304 306 308 310 311 312 312 312 311 309 308 308 308 308 306 304 303 304 304
313 312 311 312 314 316 315 315 315 314 316 315 314 313 312 314 317 318 318 317 316 316 316 316 316 315 315 313 312 311 312 313 313 311 310 307 305 304 303 302 301 301 301 303 305 308 309 309 309 311 311 311 310 310 309 308 307 307 307 305 302 302 302
314 313 313 314 316 316 316 315 314 314 314 313 312 311 310 310 313 314 314 313 312 312 312 314 314 313 310 307 307 308 309 309 307 305 304 302 301 301 300 300 301 303 304 305 307 307 307 307 307 310 311 311 310 310 310 309 309 307 305 305 302 301 300
315 315 315 315 316 316 316 316 315 313 312 313 312 311 309 308 309 310 309 307 305 305 307 309 309 307 304 304 305 306 306 305 303 301 300 300 300 299 300 300 303 305 306 306 307 306 307 306 307 308 309 311 310 310 309 309 309 308 305 303 302 301 300
314 313 313 313 312 314 317 316 314 312 310 312 313 312 310 308 309 308 307 303 302 301 302 303 303 303 302 303 304 304 304 303 302 302 301 301 301 300 301 303 305 306 306 306 306 305 306 306 306 307 307 309 310 310 311 309 308 308 306 302 301 301 300
314 312 312 311 311 312 315 316 314 312 309 309 311 312 310 309 309 309 308 306 304 303 302 301 303 303 302 302 303 303 304 303 303 304 303 303 303 303 304 304 305 306 305 305 305 305 305 306 307 308 307 308 309 309 310 310 308 307 306 302 301 301 299
315 313 311 312 314 312 313 316 315 313 310 307 308 310 310 310 309 310 310 309 309 307 304 303 304 305 305 304 303 303 303 303 304 304 304 303 303 304 305 306 306 306 305 305 305 304 305 305 306 308 308 308 308 308 309 309 308 306 303 301 301 300 298
316 314 311 312 314 312 313 316 316 314 312 308 307 308 308 309 310 310 310 311 311 311 309 306 306 307 308 308 306 305 304 304 304 304 304 303 303 303 305 305 305 304 304 304 305 305 305 305 305 306 307 308 308 307 307 307 307 305 302 301 301 299 297
317 315 313 313 313 313 314 316 317 315 313 310 308 308 307 308 310 310 311 311 311 312 311 310 308 308 309 309 309 308 307 306 306 306 305 304 304 304 304 304 304 303 303 303 304 306 306 306 306 306 307 308 307 305 305 305 306 305 303 301 301 299 298
317 316 315 314 315 315 316 317 317 316 314 312 310 309 308 307 309 310 310 311 311 312 312 311 310 309 308 309 310 310 309 308 308 308 307 307 306 305 305 305 304 304 304 304 304 306 305 306 307 306 306 306 305 303 303 304 305 306 304 301 300 300 299
316 315 314 315 317 318 317 317 317 317 316 314 312 311 310 309 309 310 311 310 311 311 311 311 311 310 309 309 309 310 310 310 309 309 309 309 308 307 307 306 306 305 305 305 305 305 305 305 306 306 305 305 304 303 302 304 305 305 305 303 300 299 300
314 314 314 314 316 318 318 317 318 317 317 316 314 312 311 310 310 311 311 311 310 310 310 310 311 311 310 310 310 310 310 310 310 310 310 310 309 309 308 308 307 306 306 305 306 306 305 305 306 306 306 304 304 303 302 304 305 305 305 304 301 300 299
314 313 313 314 315 316 318 318 317 318 317 317 316 314 312 311 311 311 312 312 311 311 312 312 312 311 311 312 312 312 312 311 311 311 310 310 310 310 310 309 309 308 307 307 306 306 306 305 305 305 305 304 303 303 302 304 305 305 304 303 302 301 301
314 314 314 314 315 316 317 317 317 317 317 317 316 315 313 312 312 312 313 313 313 313 314 314 314 314 314 314 314 315 315 314 312 311 311 311 311 311 310 310 310 309 309 308 308 307 306 306 306 305 305 304 303 303 302 304 305 305 305 304 303 303 302
315 316 315 315 315 316 316 317 317 317 317 316 316 316 315 313 313 314 314 314 314 314 314 315 315 314 314 315 315 316 317 316 315 314 313 314 314 315 313 312 311 311 310 310 309 309 308 307 306 306 305 305 304 303 303 303 305 306 305 305 304 304 303
316 315 315 314 315 315 316 316 317 317 317 317 316 315 314 314 314 314 315 315 315 314 314 314 314 314 314 315 316 316 316 316 316 316 315 316 315 315 315 315 315 314 313 312 311 309 308 308 307 306 306 306 304 303 302 304 305 306 306 306 305 305 305
315 315 315 315 315 316 316 317 317 317 317 316 316 315 315 315 315 315 315 314 315 314 314 313 312 313 314 314 315 316 316 316 316 316 316 316 315 315 315 315 316 316 316 314 313 312 310 308 307 307 307 307 305 303 302 303 305 306 306 306 306 305 306
317 316 316 316 317 317 317 318 318 317 317 316 315 315 315 315 315 315 315 314 314 314 314 312 311 312 313 314 315 316 316 316 316 316 316 317 317 317 317 317 317 317 317 316 316 315 314 311 308 306 306 307 306 303 302 303 305 305 305 305 304 303 304
317 318 317 317 318 318 317 317 317 317 316 316 316 315 315 315 316 316 316 314 314 314 313 312 311 312 313 315 315 313 311 310 310 311 313 314 315 316 317 317 317 317 317 317 317 316 315 313 309 306 306 306 304 302 302 303 303 303 303 304 303 302 302
318 318 318 318 318 318 317 317 316 316 316 316 316 316 316 316 316 316 316 315 314 314 314 312 311 312 314 314 311 308 306 307 309 311 312 313 315 315 315 315 316 316 316 316 315 315 314 313 309 306 305 304 302 300 301 301 302 302 302 302 302 302 302
318 318 318 318 318 318 317 316 316 316 316 317 316 316 316 316 316 316 316 315 315 315 314 312 312 314 314 311 307 306 307 308 310 311 311 312 313 313 313 314 313 313 313 313 312 311 310 310 307 306 304 302 300 300 301 301 301 301 301 301 301 301 300
317 318 317 317 318 318 317 317 317 317 316 316 316 316 316 316 316 315 315 314 315 314 312 312 314 314 312 308 307 307 307 307 307 308 309 310 310 311 311 312 312 311 311 310 309 308 308 307 306 304 302 300 299 299 300 300 300 300 300 299 299 299 298
314 317 317 317 317 317 317 316 316 317 316 317 317 316 316 316 316 315 314 315 315 314 313 315 315 312 310 308 308 307 307 307 307 307 308 308 309 309 310 310 311 310 309 307 306 306 305 305 304 302 301 299 299 299 299 299 299 299 299 299 298 298 297
309 313 316 317 317 317 317 316 316 316 315 316 316 316 316 316 316 315 315 315 315 315 316 316 314 311 310 309 308 308 308 308 307 307 307 307 307 307 308 308 309 308 306 304 304 304 303 303 302 301 300 299 298 298 298 298 298 298 298 298 297 297 296
306 308 311 314 315 315 316 316 316 315 315 315 315 315 315 316 316 316 316 316 316 316 316 314 312 310 310 309 308 308 308 307 307 307 307 306 306 306 306 306 306 307 305 303 302 303 303 302 301 301 300 299 299 298 298 297 297 296 296 296 295 295 294
305 306 307 310 313 313 314 315 315 315 315 315 315 315 315 315 316 316 315 315 316 316 314 312 311 311 310 310 308 308 308 308 307 307 306 305 305 304 304 304 304 304 304 303 303 303 303 302 302 301 301 301 300 298 297 296 295 295 294 294 294 293 293
304 305 306 308 311 312 314 314 315 316 316 316 316 316 316 316 316 315 315 315 315 314 312 311 311 311 310 310 309 308 308 308 307 306 305 304 303 303 302 302 301 301 302 302 302 302 301 301 301 301 300 300 300 298 296 295 294 294 293 293 293 293 293
302 304 305 307 308 309 310 312 313 314 315 315 315 315 314 315 315 314 315 315 314 312 312 312 311 310 310 310 309 308 308 307 307 306 304 302 302 301 301 300 300 299 300 300 300 300 300 300 299 299 298 298 297 296 295 294 293 293 293 293 293 293 293
301 302 304 306 307 306 307 308 310 310 311 312 312 312 312 313 313 313 313 314 313 312 312 312 311 310 310 309 309 308 307 307 306 305 304 302 301 301 300 300 299 298 299 299 299 298 298 297 297 296 296 295 295 294 294 293 293 293 293 293 293 294 294
301 301 303 304 305 306 306 306 307 307 308 308 309 309 310 311 312 312 312 312 312 312 311 311 310 309 309 308 307 307 306 306 305 305 304 303 301 300 300 299 298 298 297 297 297 297 296 295 295 294 294 293 293 293 293 293 293 293 293 293 293 294 294
300 300 301 302 303 304 305 305 306 306 306 306 306 307 309 310 310 310 310 311 311 311 310 309 308 308 307 306 306 305 305 305 304 304 303 302 301 300 298 298 297 296 296 296 296 295 294 294 293 293 293 293 292 292 293 293 293 293 293 293 293 293 293

ECMWFFLT1_925_thetae_012.txt.gz
Theta_e
325 325 325 325 324 322 323 322 323 325 326 326 326 326 326 326 325 325 325 325 325 324 325 326 326 327 327 328 331 331 330 330 330 331 330 330 330 331 330 330 329 329 329 328 327 325 322 319 317 316 317 317 317 317 317 317 318 318 317 317 318 318 319
325 324 324 323 323 323 323 323 322 323 325 326 325 325 326 325 325 324 325 326 325 323 324 325 326 327 327 328 330 330 330 330 330 330 330 329 330 330 330 329 329 328 327 328 328 325 322 319 316 316 317 317 317 316 315 316 316 317 316 316 317 317 317
325 324 323 323 323 323 323 323 323 322 323 324 325 325 324 324 324 324 325 325 325 324 324 325 326 326 327 328 329 330 330 330 330 330 329 329 329 329 329 328 328 326 325 325 325 323 320 319 317 317 316 317 317 316 314 313 314 314 314 315 315 315 316
326 324 323 323 322 322 322 322 322 322 323 324 324 323 323 323 323 324 325 324 323 324 324 325 325 326 327 328 330 330 329 329 329 329 329 329 329 328 327 326 325 323 322 321 321 319 318 318 318 317 317 316 316 316 314 312 312 312 312 312 312 313 313
326 324 323 322 320 320 320 320 321 321 322 323 322 322 322 322 323 323 323 323 322 323 323 323 324 325 326 328 330 329 329 329 329 329 329 328 327 326 324 323 320 319 319 318 318 316 316 317 318 318 316 315 315 315 313 312 311 311 311 311 311 311 312
326 324 322 321 320 319 318 319 320 321 321 322 321 320 321 322 322 322 322 322 322 322 322 323 323 323 324 326 328 329 329 328 328 328 327 326 324 322 320 317 315 315 314 313 314 314 314 315 317 316 315 314 314 314 313 312 311 310 309 308 309 310 310
325 323 321 320 319 318 318 318 320 320 321 321 320 320 320 321 321 322 322 322 322 322 322 322 321 322 322 322 324 325 325 325 324 323 323 322 320 318 316 314 312 312 311 311 311 312 312 314 316 316 316 315 314 313 313 312 311 310 308 306 306 308 309
323 323 322 321 320 319 318 318 319 320 320 319 319 319 320 320 320 320 320 320 320 321 321 321 320 320 320 319 320 321 320 319 319 318 318 318 317 316 314 312 311 311 312 311 311 311 311 313 314 315 315 315 313 313 313 312 312 310 307 306 305 305 307
321 322 321 320 319 318 318 319 319 319 319 318 318 318 318 319 319 318 317 317 318 319 319 319 318 318 317 317 317 317 317 316 316 315 315 315 315 314 314 312 311 312 313 313 312 312 312 312 314 315 315 315 314 313 313 312 311 309 307 306 305 304 305
318 318 319 318 315 313 314 316 319 319 317 318 318 316 316 316 317 316 314 314 315 316 316 315 315 314 314 314 314 314 314 314 314 313 312 312 312 313 314 313 312 313 314 313 313 313 312 312 313 314 314 314 314 314 313 313 312 310 308 307 306 305 304
315 316 317 316 314 312 310 311 316 319 317 316 317 316 315 314 314 313 312 311 311 313 314 313 312 312 312 312 312 312 311 311 311 311 311 311 311 313 314 314 313 313 314 314 314 314 313 313 312 312 313 313 314 314 314 314 313 311 308 307 306 304 304
315 318 316 313 314 315 311 309 313 317 317 317 316 315 315 314 313 313 311 311 310 311 311 311 311 311 311 310 310 310 310 310 310 311 311 311 312 313 314 314 314 314 314 313 313 314 314 314 312 312 313 314 315 315 315 314 313 311 310 308 305 303 303
315 316 314 311 312 315 313 310 309 310 312 316 316 315 315 314 314 313 312 312 310 310 310 311 311 311 311 310 309 310 311 311 310 310 311 311 312 313 313 314 313 313 314 313 313 314 314 314 314 314 314 314 315 315 315 315 314 311 309 308 306 303 303
314 315 314 312 312 313 313 313 312 310 312 316 317 315 314 315 314 313 313 313 312 311 311 311 312 311 311 311 311 311 311 312 310 311 310 311 312 312 312 312 312 312 313 313 313 313 313 314 314 314 314 314 314 314 314 314 313 311 308 307 306 304 303
318 317 316 315 316 316 315 315 315 315 315 317 317 315 314 315 315 314 314 315 315 313 312 312 313 313 313 312 312 312 312 312 311 311 311 310 311 312 312 311 310 311 312 312 312 312 312 312 313 313 313 313 313 312 313 313 313 312 310 307 306 304 304
321 319 318 318 321 322 319 316 315 316 317 317 316 316 316 315 315 315 315 315 316 316 314 314 314 315 315 315 314 314 314 313 313 313 312 311 310 311 311 311 311 310 311 312 311 311 311 311 311 312 312 312 312 311 311 313 313 313 311 309 307 305 305
322 322 320 320 322 324 322 319 318 318 319 318 316 315 316 316 315 315 315 315 315 315 316 315 315 315 315 315 315 316 315 315 315 315 314 313 312 312 312 312 312 311 311 312 312 312 311 311 311 311 311 311 310 310 311 312 313 313 311 310 308 307 307
323 322 322 321 323 324 323 322 321 320 320 320 318 316 316 316 315 315 314 314 314 314 315 316 315 315 315 315 315 316 316 316 316 316 316 315 314 314 314 314 314 313 312 313 314 313 312 312 311 312 312 311 310 310 311 312 312 312 312 311 309 308 308
323 323 323 322 323 324 323 322 322 322 321 320 320 319 317 316 316 315 315 314 314 314 315 316 316 317 317 318 318 318 318 318 317 316 316 316 316 316 315 315 315 315 314 314 314 314 313 312 312 312 312 311 310 310 311 312 313 313 312 312 311 310 309
323 323 323 323 323 323 322 321 322 322 321 321 321 320 319 318 317 316 316 316 315 316 317 318 319 318 319 320 320 320 320 320 319 318 318 317 316 316 316 316 316 316 315 315 315 315 314 314 313 312 311 311 310 310 310 312 312 313 313 312 312 312 311
323 323 323 322 322 323 322 322 322 322 321 321 321 321 320 319 318 318 318 318 319 319 319 319 318 318 319 320 320 320 321 321 321 320 320 319 318 318 317 317 316 316 316 315 315 315 315 315 314 313 312 311 310 310 310 311 312 313 313 313 313 312 312
323 323 322 322 323 323 322 322 321 321 321 321 321 322 321 320 319 319 320 320 320 318 317 317 316 316 317 318 318 318 318 320 320 320 320 320 319 319 318 317 317 317 316 316 315 314 314 314 314 314 313 313 310 310 310 310 311 312 313 313 313 312 312
324 323 323 322 322 323 322 322 321 321 320 320 321 321 321 320 320 320 320 320 319 316 315 314 314 315 316 315 315 315 316 318 318 320 320 318 318 319 319 319 319 319 317 316 315 315 313 312 312 311 312 313 311 310 310 310 310 311 312 312 312 312 312
324 324 324 323 322 322 322 322 322 321 321 321 320 321 321 320 320 320 320 320 318 315 314 314 314 315 315 314 313 313 315 316 317 318 319 318 318 319 319 319 321 320 319 318 317 317 316 315 313 311 310 310 310 309 309 310 310 310 311 311 311 311 311
323 323 323 323 323 323 322 322 323 322 321 321 320 320 321 320 320 320 319 318 317 315 314 314 314 314 314 314 313 312 314 316 315 314 316 317 317 317 317 318 319 319 319 319 318 318 317 317 316 315 311 308 307 307 307 308 309 310 310 310 310 310 310
321 321 322 322 322 322 322 322 322 322 322 322 320 319 319 319 319 318 317 318 317 317 317 316 315 314 315 314 313 313 314 314 313 312 315 317 316 317 317 317 318 318 318 317 316 317 318 316 316 315 313 308 305 305 304 304 305 306 307 308 308 308 309
320 321 321 321 321 321 321 321 321 322 322 322 320 319 319 319 318 318 318 318 318 319 319 318 316 315 314 313 313 313 314 314 314 315 315 315 315 315 315 316 317 317 316 315 314 315 316 315 313 311 310 306 304 304 303 302 302 303 303 305 306 308 308
318 320 320 320 320 320 321 321 321 322 321 321 321 320 319 319 319 318 319 319 319 320 319 319 317 314 312 313 312 312 313 314 314 315 314 313 313 313 313 313 315 314 313 312 312 311 312 313 310 307 307 306 305 305 303 302 302 303 303 304 305 306 306
314 316 318 319 320 320 320 321 321 321 321 320 320 320 319 319 319 319 320 320 320 320 319 319 317 313 312 312 311 310 313 314 313 313 313 312 312 312 312 313 313 312 310 309 309 308 309 310 310 307 307 306 305 304 302 300 300 301 301 301 302 302 302
310 312 314 317 319 320 320 320 321 321 321 320 320 319 319 319 319 320 320 320 319 319 320 319 316 313 313 312 309 310 313 312 311 312 311 311 311 310 309 310 311 311 308 307 307 306 306 308 309 308 307 306 304 302 300 299 299 300 299 300 300 299 299
309 310 312 313 316 318 319 321 321 321 321 320 320 320 319 319 319 319 319 319 318 318 318 317 315 314 313 310 309 312 312 311 311 311 310 310 309 307 307 307 309 309 307 305 305 304 304 306 308 307 307 306 306 305 302 300 299 299 299 299 299 298 298
308 309 310 311 313 315 317 319 320 321 320 320 320 319 319 319 319 318 318 317 317 317 316 315 315 314 311 308 309 312 311 311 311 310 309 309 307 306 305 306 306 306 306 305 304 304 304 306 308 308 307 307 307 306 304 302 301 301 301 300 300 299 298
307 308 308 310 311 313 314 316 318 320 320 320 319 318 318 318 318 317 316 316 316 316 316 316 314 312 309 308 310 312 311 311 311 309 308 308 307 305 304 303 303 304 304 304 304 303 303 304 307 307 307 307 308 306 303 302 301 300 300 301 300 299 299
306 306 307 308 310 311 312 314 316 318 319 318 318 318 318 317 318 318 317 316 316 315 316 315 313 310 308 309 310 311 311 311 310 309 308 307 307 306 304 302 301 302 302 302 302 303 302 302 303 305 304 304 304 302 301 301 299 298 298 299 299 299 299
304 305 306 307 308 310 312 313 314 316 318 317 317 317 317 316 315 315 315 315 315 314 314 313 311 309 308 309 310 310 311 311 309 308 308 306 307 306 304 302 300 300 301 301 301 301 301 300 300 300 300 299 299 297 297 299 299 298 298 299 299 298 298
303 304 305 306 307 308 310 311 312 314 317 318 318 317 315 313 312 310 310 311 312 312 311 310 309 308 308 309 309 310 310 309 307 307 307 307 306 305 303 301 300 300 299 300 300 299 299 298 298 297 297 296 295 294 295 297 298 298 298 298 298 298 298
302 303 304 305 306 306 308 309 310 312 314 316 316 315 314 313 311 310 309 308 309 310 309 308 309 309 309 309 309 309 309 307 306 307 307 307 306 304 302 301 300 299 298 298 298 297 297 296 296 295 294 294 293 294 296 298 298 298 298 297 297 298 298

ECMWFFLT1_925_thetae_015.txt.gz
Theta_e
326 326 325 324 323 322 323 323 324 325 326 326 326 326 326 326 326 326 326 326 325 325 325 326 326 326 326 327 330 330 330 330 330 330 330 331 331 331 331 330 328 329 328 328 328 326 325 323 320 320 319 319 320 320 321 321 320 320 320 320 320 321 322
323 324 323 323 323 323 323 323 323 324 325 326 326 326 326 326 326 326 326 326 325 324 324 324 325 326 327 330 332 332 331 331 330 330 330 331 330 330 331 331 329 328 327 327 328 326 325 322 319 320 319 319 319 318 319 319 319 319 319 319 319 319 320
322 323 322 323 324 323 323 323 323 323 325 326 326 326 325 325 326 326 326 326 326 325 325 325 325 326 329 331 332 333 332 332 331 331 331 330 330 330 331 330 329 328 326 326 326 325 323 321 319 319 319 319 318 317 317 317 317 317 317 317 317 317 318
323 323 322 323 324 323 323 323 323 323 324 325 325 325 325 325 326 326 325 325 325 325 325 325 325 326 329 331 331 332 332 331 330 331 331 330 329 329 328 327 326 326 325 324 324 323 321 320 319 319 319 318 317 316 316 315 315 314 314 315 315 316 316
323 323 322 322 322 322 323 322 323 323 324 325 324 324 324 325 326 325 324 324 325 325 325 325 325 326 329 331 330 330 330 330 330 330 330 330 329 327 326 324 323 323 322 320 320 319 318 319 319 318 318 316 316 316 315 314 313 312 313 313 314 314 314
323 322 322 321 321 321 321 322 322 323 323 323 323 323 324 324 325 325 324 324 325 325 325 325 325 325 327 329 330 330 329 329 330 329 329 328 327 324 322 320 320 320 318 317 318 318 317 318 319 317 316 316 315 315 314 313 311 310 310 310 311 312 313
324 323 322 321 320 320 320 321 322 322 323 323 322 323 323 324 324 324 324 324 324 324 324 324 324 323 324 326 328 327 327 327 327 326 325 324 322 320 318 316 315 315 314 313 315 315 316 317 317 317 315 315 315 315 313 313 311 310 308 308 309 311 312
323 323 321 320 321 320 320 321 322 323 322 322 322 322 322 322 322 322 323 323 324 323 323 323 323 322 322 322 323 323 322 322 322 322 321 320 319 317 315 314 313 313 313 312 312 312 314 316 316 316 316 315 314 315 314 313 312 310 308 308 308 309 311
322 322 322 321 322 320 321 322 323 322 321 320 320 321 321 320 319 319 320 321 321 321 321 320 320 320 320 320 320 319 318 318 317 317 317 317 317 316 315 314 314 314 314 313 313 313 314 315 316 316 315 314 314 314 313 313 312 310 310 309 308 308 309
322 322 321 322 322 321 321 322 322 321 320 319 319 320 320 319 318 317 318 319 319 318 317 317 316 317 317 317 317 317 316 316 316 315 315 315 316 316 316 315 315 315 315 315 314 314 315 315 315 315 315 315 314 314 314 314 313 311 310 309 308 308 307
321 321 321 321 322 322 322 321 320 320 319 318 317 317 318 317 316 315 316 316 316 316 315 314 315 315 315 315 314 315 315 315 314 314 314 315 316 317 316 316 316 317 316 316 315 315 315 315 315 316 315 315 315 315 315 315 314 313 312 310 309 308 307
322 322 321 320 320 320 321 321 320 318 317 317 315 315 315 315 314 313 314 314 315 314 314 314 313 314 313 313 312 312 313 313 314 314 314 315 317 318 318 317 317 317 316 317 317 316 316 315 315 316 316 316 317 317 316 316 316 315 313 311 309 308 307
322 322 320 320 319 318 318 319 320 319 317 315 315 315 314 313 313 313 313 313 313 313 313 314 313 312 312 312 312 312 313 313 313 314 314 315 316 317 317 317 317 317 317 316 316 317 317 316 316 316 316 317 317 317 317 317 317 315 313 311 309 308 307
322 321 321 322 321 318 315 313 314 318 318 316 315 315 315 314 313 313 312 311 312 312 313 313 313 313 312 313 313 313 313 312 313 314 314 314 315 315 316 316 316 316 316 316 316 316 316 316 316 316 316 316 316 316 317 317 316 315 314 312 310 308 308
321 321 323 324 322 320 317 311 311 316 318 316 315 314 315 315 314 314 313 313 312 312 313 314 314 314 314 314 314 314 314 313 313 313 314 314 314 315 315 314 314 315 315 315 315 315 314 315 315 315 315 315 315 316 316 316 316 315 314 312 310 309 309
321 320 323 324 323 322 320 318 318 318 318 317 316 314 315 316 315 315 315 315 313 313 314 315 316 315 314 314 315 315 315 314 314 313 313 313 313 314 314 314 313 313 314 314 314 314 314 314 315 314 315 315 315 315 315 315 315 315 314 313 311 310 309
322 321 322 322 322 322 322 322 321 319 317 317 316 316 315 315 316 316 316 316 315 315 315 316 317 316 316 316 315 316 316 316 315 315 314 313 313 313 314 314 314 313 314 315 314 314 313 313 314 314 314 314 314 314 314 315 315 314 314 313 312 311 310
324 324 323 322 321 321 321 321 320 319 318 317 317 317 316 315 315 316 316 316 316 316 315 315 316 317 318 318 318 317 317 317 317 317 317 316 315 315 315 316 316 315 315 316 316 315 314 314 314 314 315 314 314 314 315 315 315 314 314 314 313 312 312
326 325 323 322 322 322 322 320 319 319 319 318 317 318 317 315 315 314 314 314 315 315 315 315 315 316 316 317 318 318 318 319 319 319 319 318 317 317 317 318 317 317 317 317 317 317 316 315 315 316 316 315 314 314 315 316 316 315 315 315 314 313 313
324 324 324 323 324 324 322 320 320 319 319 319 319 318 318 317 316 315 314 314 313 314 316 315 315 316 316 318 319 319 320 320 319 319 319 319 318 318 318 318 319 318 318 318 318 317 317 316 316 316 315 315 315 314 315 315 315 315 316 315 315 314 314
324 323 325 325 324 324 322 320 320 320 319 320 320 320 319 318 317 316 315 314 314 315 316 316 317 318 318 320 321 322 322 321 321 320 320 319 320 320 319 319 319 319 318 318 317 317 317 317 317 316 316 316 315 314 314 314 315 315 315 315 315 314 314
326 325 325 325 324 324 323 322 322 321 321 321 321 320 320 320 319 317 316 316 316 316 317 318 319 319 320 322 323 323 323 323 323 322 322 321 321 320 320 319 319 319 318 317 317 316 317 317 317 316 316 316 316 315 314 314 315 315 315 315 314 313 313
326 326 326 325 324 324 324 324 324 322 321 321 321 321 321 321 320 319 318 318 318 319 320 320 320 319 320 322 322 322 322 322 322 322 322 322 321 320 319 319 319 318 318 317 317 316 316 316 316 316 315 316 316 315 314 314 314 314 314 314 313 312 313
327 326 325 325 324 324 325 325 325 323 322 321 322 322 322 322 321 321 320 320 321 322 322 322 320 319 320 322 321 319 319 319 318 318 319 319 319 319 318 318 318 317 318 320 319 318 317 316 316 316 315 315 314 314 314 314 314 315 314 314 313 313 312
325 325 326 325 324 324 325 325 324 324 323 322 321 322 322 322 322 322 321 321 322 323 323 322 320 317 317 319 319 317 317 316 316 316 316 314 315 316 317 318 318 318 319 321 321 319 318 318 317 317 316 315 314 312 312 312 312 312 313 314 313 313 312
322 323 324 324 324 324 325 324 324 324 324 324 323 322 322 322 322 322 323 322 322 323 323 322 319 315 315 316 316 316 317 317 317 317 316 313 314 316 315 314 316 317 318 319 319 318 318 318 318 317 317 317 315 312 310 310 309 308 309 311 312 312 312
320 321 322 322 323 324 324 324 324 324 324 324 324 323 322 322 322 322 322 322 322 322 323 321 318 314 314 314 315 315 316 318 318 318 317 316 316 316 315 313 313 317 318 318 317 317 318 318 317 316 315 315 314 312 309 308 307 306 305 306 307 310 311
317 318 319 321 322 322 322 323 323 324 324 323 323 324 323 322 322 321 321 322 321 321 321 320 318 316 314 314 315 315 314 316 317 317 317 317 315 315 316 315 315 317 318 316 315 315 317 318 316 313 312 311 310 309 307 306 306 306 306 307 307 309 309
313 315 316 318 319 320 321 322 322 323 323 323 323 323 322 322 321 320 320 320 320 320 320 320 320 318 317 317 316 315 314 315 316 316 317 316 315 315 317 316 315 316 315 312 312 312 313 316 315 312 311 311 309 307 307 306 305 305 305 306 305 305 305
311 312 313 314 316 317 318 320 321 322 322 323 323 323 322 321 320 319 319 319 319 320 320 320 320 319 318 318 316 314 314 315 316 315 315 315 315 316 315 314 315 314 311 309 310 309 310 313 314 313 312 311 309 307 306 305 303 302 302 302 302 301 301
310 311 312 313 313 315 317 317 318 321 322 322 322 322 322 321 320 320 321 320 320 319 319 319 319 319 319 317 314 314 315 315 315 314 314 313 313 312 310 310 313 312 309 308 308 308 309 311 312 312 312 311 309 308 306 303 301 300 301 301 301 301 301
309 309 310 311 312 313 314 315 316 318 321 322 321 321 322 321 319 320 322 321 321 319 318 318 318 318 319 316 313 314 315 314 314 313 312 312 311 308 307 308 310 310 308 306 306 306 308 310 311 311 311 310 309 309 307 305 304 304 304 304 304 303 303
307 308 309 309 310 310 312 314 314 316 318 320 320 320 321 321 321 321 321 321 321 320 319 319 318 318 317 314 312 314 315 314 314 312 311 310 309 308 306 306 307 307 306 306 306 305 306 309 311 311 310 310 309 309 308 307 305 304 304 304 304 304 304
305 306 307 307 308 309 310 311 313 314 316 318 319 320 320 320 320 321 321 321 321 320 319 318 317 316 315 313 312 313 314 313 313 312 310 309 309 308 306 305 305 306 305 305 305 305 305 307 309 310 309 308 307 307 306 305 304 303 302 303 303 303 303
303 304 305 306 307 308 309 309 310 312 314 315 316 318 320 320 320 320 320 320 319 319 318 317 316 315 314 312 312 312 312 312 312 311 309 309 308 307 305 304 304 305 304 304 304 304 304 304 305 305 305 304 304 303 303 303 303 302 302 302 302 302 302
302 302 303 305 306 306 307 308 309 310 312 313 313 315 318 320 320 319 318 318 318 318 317 316 315 315 314 312 310 310 311 311 310 310 309 308 308 307 305 304 304 304 303 303 303 303 302 302 302 301 301 301 300 300 300 301 301 301 301 301 301 301 301
302 302 302 303 304 305 306 306 308 308 310 311 312 313 316 319 319 318 317 316 316 316 315 314 314 314 313 311 308 308 309 309 309 310 309 308 308 306 304 304 304 303 302 302 301 301 300 300 299 299 298 298 297 297 299 301 301 301 301 301 300 300 300

ECMWFFLT1_925_thetae_021.txt.gz
Theta_e
325 324 324 325 325 324 321 324 327 326 326 326 326 326 326 327 327 327 327 326 327 328 328 328 328 329 331 331 330 331 330 328 328 329 329 328 328 329 329 329 328 328 327 326 326 324 323 323 320 320 320 320 320 321 322 322 322 323 324 325 324 323 321
325 322 323 322 322 323 322 325 327 326 326 326 325 326 325 326 326 326 326 326 326 327 327 328 327 328 330 330 329 330 330 329 328 328 329 329 329 329 329 329 329 328 327 326 324 320 320 322 321 320 319 319 319 319 320 321 322 322 322 322 321 320 318
324 322 321 322 322 324 324 325 325 326 326 326 325 326 326 326 325 325 325 325 326 327 327 328 329 329 330 330 329 329 329 329 329 328 328 328 329 329 329 328 329 328 327 327 326 322 319 319 320 319 318 319 319 319 318 319 321 321 320 319 318 317 315
322 322 321 321 322 323 323 323 324 325 326 325 325 326 326 325 325 325 325 325 325 326 327 327 327 328 329 330 330 329 330 330 329 329 328 328 328 329 329 329 328 327 326 327 325 324 321 318 319 319 317 317 319 318 318 318 319 319 317 316 315 314 314
322 322 321 322 322 322 322 323 324 325 325 324 324 325 324 324 325 325 325 324 325 326 326 326 327 329 330 329 329 330 330 330 329 329 328 327 328 328 328 328 328 326 326 325 324 324 321 318 318 318 316 317 316 317 318 317 316 316 315 315 314 314 313
323 322 322 322 322 322 323 324 324 325 324 323 324 324 324 324 324 325 324 324 325 325 325 326 327 329 330 329 329 329 329 329 328 327 326 326 326 326 326 326 326 326 324 322 322 322 321 318 317 315 314 314 313 313 314 315 315 315 314 314 313 313 312
322 322 322 323 322 323 322 323 324 324 324 323 323 324 325 325 325 324 324 324 325 324 325 326 328 329 329 329 328 328 328 328 326 324 322 322 321 322 322 321 320 320 317 317 320 321 321 318 316 314 313 314 312 311 310 310 313 313 313 314 313 312 311
322 321 322 322 322 322 321 322 323 324 323 323 324 324 325 325 324 324 324 324 324 324 324 326 327 328 328 327 326 326 326 325 322 319 317 315 314 314 315 314 314 314 314 315 317 319 320 318 315 314 313 314 315 312 308 308 309 311 312 313 312 311 309
321 321 321 321 321 321 322 323 324 323 323 324 323 324 323 323 324 325 324 323 323 323 323 325 324 325 325 325 324 323 322 321 318 316 314 314 313 313 313 313 313 314 314 315 315 316 317 316 315 314 313 314 315 313 311 309 308 309 311 312 311 310 309
321 320 320 320 321 322 323 323 323 323 323 323 322 321 321 321 323 324 322 322 321 321 321 322 321 321 322 322 322 321 320 319 317 314 314 314 313 313 314 313 314 314 315 315 315 315 316 316 315 315 314 313 312 313 316 317 311 308 310 311 310 310 309
321 321 320 320 321 323 323 322 322 321 321 321 320 319 319 320 322 322 321 320 319 319 318 319 318 318 318 318 318 318 317 316 315 314 314 315 314 314 313 314 314 314 315 315 315 316 316 316 316 316 315 313 311 311 315 319 316 310 308 309 309 309 308
321 321 321 321 322 323 322 321 320 320 320 320 319 318 318 319 320 319 318 317 317 317 317 317 317 317 316 315 315 315 315 315 316 316 317 317 316 315 313 313 313 314 315 315 315 316 316 316 316 316 316 315 313 311 311 314 317 313 308 308 308 308 307
321 321 321 321 322 323 322 321 320 319 319 319 319 317 316 317 317 316 315 315 316 316 315 316 316 315 315 314 314 314 315 316 317 317 317 316 315 315 314 315 315 315 315 316 316 316 316 316 316 316 316 316 314 313 311 312 314 312 309 308 308 308 308
322 322 321 321 322 322 321 320 319 318 318 317 316 315 314 315 315 315 314 314 314 314 314 314 314 314 314 313 313 313 315 316 317 317 317 316 315 315 316 316 317 316 316 316 316 316 315 315 315 315 316 316 315 314 313 312 311 311 310 309 308 308 308
322 321 320 321 321 320 320 319 318 317 315 315 314 314 313 314 314 313 313 314 313 313 312 312 312 312 313 313 313 314 315 316 317 317 317 317 316 316 316 316 316 316 316 316 315 315 315 314 315 315 316 316 316 315 315 314 312 311 310 309 309 308 309
321 319 318 319 320 320 320 318 316 316 314 313 315 314 313 313 313 313 313 313 313 313 312 312 312 312 313 313 314 314 315 316 316 316 316 316 316 316 315 315 316 315 315 315 314 314 314 315 315 315 315 315 315 315 315 314 313 312 310 310 309 309 310
319 317 317 318 317 317 318 317 315 315 314 314 315 315 313 313 313 312 312 313 313 313 313 314 313 313 314 314 314 314 315 315 315 315 315 315 315 314 314 314 314 314 315 315 314 313 313 314 315 315 315 315 315 315 314 314 314 313 312 311 310 309 310
319 317 319 318 317 315 313 312 313 314 313 313 315 315 314 314 314 313 312 313 314 314 314 314 313 313 315 315 314 314 315 314 314 314 314 314 314 314 313 313 312 312 313 314 314 314 313 314 315 315 315 314 314 314 314 315 314 314 313 312 311 310 310
320 321 321 321 319 317 311 307 308 311 313 315 316 316 315 314 315 314 313 313 314 315 315 315 314 314 315 315 314 314 314 313 313 314 314 313 313 313 314 315 314 313 313 314 315 315 315 315 315 316 315 314 314 314 315 315 315 314 314 314 312 311 311
322 322 324 322 321 321 317 312 311 314 316 317 317 317 315 314 315 316 315 314 315 315 316 316 315 315 315 316 316 314 314 314 314 314 314 313 314 315 315 316 316 316 316 316 317 317 316 315 316 316 316 315 314 314 315 315 316 315 315 315 313 313 313
324 324 324 324 322 323 322 320 318 318 319 319 318 316 315 315 315 316 316 315 316 316 315 316 317 317 317 317 317 316 315 316 316 317 316 315 316 316 317 317 317 317 317 317 318 318 317 317 316 316 317 316 315 315 314 314 315 315 315 315 314 314 314
326 326 325 324 323 323 323 322 321 320 321 321 319 316 315 316 315 315 315 316 316 316 316 315 316 317 317 317 317 317 317 316 317 318 318 317 318 317 317 318 318 318 318 318 318 318 317 317 317 317 317 317 316 316 315 315 314 314 314 314 314 315 315
326 325 324 324 324 324 323 322 322 322 321 321 320 317 317 316 316 315 315 315 315 315 315 315 315 315 315 316 317 318 318 317 318 319 319 319 319 318 318 319 318 318 319 318 318 318 317 317 317 317 317 317 316 316 316 315 315 314 314 314 315 315 314
325 324 324 324 324 324 323 323 323 322 322 322 322 320 319 319 318 318 316 316 315 315 314 314 315 315 315 315 316 318 319 319 319 320 319 319 319 319 319 319 319 318 319 319 318 318 318 317 317 316 316 316 316 315 316 316 316 315 315 314 314 314 313
323 323 323 323 323 323 322 323 323 323 322 322 322 322 321 320 320 320 319 318 318 318 316 314 314 315 315 316 316 318 319 320 320 320 320 320 320 320 320 320 319 318 318 318 318 318 317 317 317 317 316 316 316 315 315 315 315 315 315 315 314 313 312
320 321 322 322 323 323 322 322 322 323 324 323 323 323 322 321 320 320 320 320 320 319 319 317 316 315 316 316 316 318 319 321 321 321 320 320 320 320 320 319 319 318 318 318 317 317 317 317 317 317 316 316 316 316 315 314 314 314 314 314 312 312 312
315 316 317 319 321 322 322 322 323 323 324 324 323 324 324 323 321 321 321 322 321 321 320 320 319 317 316 317 317 319 321 321 321 321 321 321 321 321 320 320 319 319 318 317 316 316 316 317 318 318 316 315 315 316 316 315 314 313 312 311 310 309 310
309 311 312 313 315 316 318 318 319 321 323 323 323 322 323 323 323 322 322 322 322 322 321 321 321 319 318 318 319 320 322 322 323 322 322 321 321 319 318 318 318 317 317 317 316 314 314 315 318 318 317 316 316 316 315 315 314 313 311 310 309 308 308
306 308 309 310 311 312 313 313 314 315 318 320 321 322 322 322 323 323 323 322 322 322 322 322 321 321 320 320 320 321 322 322 322 322 322 321 318 315 314 315 316 315 316 316 314 312 312 315 317 317 317 317 316 314 314 313 312 312 311 309 309 308 308
304 306 307 308 309 309 310 311 311 311 312 313 316 318 319 320 320 321 322 322 322 322 322 322 321 321 321 320 320 320 321 321 322 321 320 319 318 316 316 315 315 315 315 314 312 311 314 316 317 317 317 315 313 312 311 310 309 309 309 308 308 308 307
303 304 305 306 306 307 308 309 309 310 309 309 309 311 313 315 317 319 320 321 322 322 322 322 321 321 321 321 320 320 319 320 320 319 318 318 318 318 318 317 316 316 315 314 312 313 315 316 316 316 315 312 311 310 309 308 307 307 307 307 306 305 304
303 303 303 303 304 304 305 306 307 307 306 306 306 308 309 311 313 316 318 320 321 322 322 321 321 321 321 320 320 320 319 319 318 317 316 316 317 316 317 317 316 314 315 315 314 314 315 315 316 316 314 311 310 310 308 307 306 306 305 305 304 304 303
301 301 302 302 302 302 302 303 304 303 303 304 305 307 308 309 310 312 315 317 319 320 320 321 320 320 320 320 320 319 319 318 318 317 316 315 315 314 315 315 314 314 315 315 315 314 314 314 315 315 313 311 310 309 307 305 305 305 304 304 303 303 303
301 301 301 301 301 302 302 302 302 302 303 303 304 305 306 307 308 308 310 314 317 318 318 319 319 319 318 319 319 319 318 318 317 317 316 315 314 314 314 314 314 314 314 314 313 312 311 313 314 314 313 311 310 309 307 306 305 305 304 303 303 303 303
300 301 301 301 301 301 301 301 302 302 302 302 303 304 304 305 306 306 307 310 313 316 317 316 317 317 317 317 318 319 318 318 317 316 315 314 314 313 313 312 312 312 312 311 310 309 309 312 314 313 312 311 310 309 308 307 306 305 303 302 302 302 302
300 300 300 300 300 301 301 301 301 301 301 301 302 302 303 303 304 305 306 306 308 313 315 315 316 316 316 317 317 318 318 318 317 315 314 314 314 313 312 311 310 310 309 308 308 308 309 311 312 311 310 310 309 308 307 306 304 303 302 302 301 301 301
299 300 300 300 299 300 300 300 300 300 300 300 301 301 301 302 302 303 304 304 305 308 311 314 315 315 314 315 317 318 318 318 316 314 314 314 313 312 311 310 309 309 307 306 306 307 308 309 309 309 308 308 308 307 306 304 303 302 302 302 301 300 300

ECMWFFLT1_925_thetae_024.txt.gz
Theta_e
329 329 328 328 328 328 326 326 326 327 326 326 326 326 327 327 327 328 328 329 330 330 329 329 331 332 332 333 333 331 330 330 330 330 330 329 329 329 329 329 327 327 326 323 321 321 322 322 321 322 324 324 324 324 325 325 324 323 323 323 320 316 311
327 328 328 327 328 328 326 326 326 326 326 326 326 325 326 326 326 326 326 327 328 329 329 329 330 332 332 332 331 330 330 329 329 329 329 328 329 329 329 328 327 326 325 322 319 319 320 321 321 320 320 321 322 323 325 324 324 324 322 320 315 309 306
326 326 325 324 325 326 327 326 326 325 325 326 326 325 326 325 325 325 325 325 326 327 328 329 330 331 332 331 330 330 330 328 328 329 328 328 328 328 329 328 327 327 325 323 320 319 317 319 320 319 318 318 318 320 324 324 323 322 320 317 312 308 306
323 323 323 324 324 325 326 325 325 325 325 326 325 325 325 325 325 325 325 325 325 326 328 328 329 330 331 331 329 329 329 328 328 328 328 328 328 328 329 327 326 326 325 323 320 318 317 317 319 319 317 317 317 318 322 322 320 318 316 314 312 309 305
322 321 323 324 325 325 325 325 325 325 325 325 326 325 325 325 324 324 325 325 326 327 327 328 328 329 329 330 328 328 329 329 328 328 327 328 328 329 329 328 326 326 325 324 320 318 318 317 318 318 316 317 317 317 319 319 316 315 314 313 312 309 306
322 321 322 323 323 324 324 325 325 325 324 324 324 324 324 325 324 324 325 325 326 327 326 326 327 329 329 329 329 329 330 329 328 327 327 327 328 328 329 327 326 326 326 324 321 318 316 316 317 316 315 317 316 315 317 317 314 313 313 313 312 310 308
321 319 321 321 322 323 324 324 325 324 323 323 323 324 324 325 324 324 324 324 325 325 325 326 328 329 329 329 329 329 329 329 328 328 327 327 327 328 328 327 327 326 325 324 323 319 314 315 316 316 315 314 313 312 314 315 314 313 313 313 311 310 309
320 319 320 320 322 323 323 324 324 324 323 322 324 325 324 324 323 323 324 324 324 325 326 327 328 328 328 328 328 328 328 328 327 326 325 325 326 327 327 326 326 325 324 323 323 321 315 312 315 317 314 312 311 310 309 311 313 313 312 313 311 309 309
320 321 322 321 322 323 323 324 324 323 323 322 324 324 324 324 323 322 323 323 324 326 327 328 328 328 327 327 328 328 327 324 322 320 320 320 322 322 321 320 319 320 319 319 320 322 318 312 314 316 314 312 311 309 308 308 309 311 313 312 311 310 309
321 322 322 322 322 322 322 323 323 323 323 323 324 324 324 324 323 322 323 322 323 325 326 327 327 327 327 327 327 325 321 317 315 314 314 315 316 315 315 315 315 315 316 316 318 322 319 313 313 314 312 312 310 309 311 311 309 310 312 312 311 310 309
321 322 321 321 321 321 322 323 323 323 323 323 323 323 323 324 323 321 321 321 323 324 324 324 325 325 325 324 323 319 315 314 313 313 313 313 313 314 314 315 315 315 315 317 318 321 319 315 313 312 311 311 310 308 310 312 311 310 310 311 310 309 308
320 320 320 321 321 322 323 323 323 323 322 322 320 320 322 323 323 321 319 319 321 322 322 322 323 323 323 322 320 317 314 314 314 313 313 313 313 314 314 315 315 315 316 316 317 319 319 315 314 312 311 310 310 308 307 310 311 310 309 310 309 308 307
320 320 320 321 322 323 323 322 322 322 320 319 318 319 321 322 322 321 319 317 318 319 319 319 319 319 320 320 319 316 315 314 314 314 314 314 313 313 314 315 316 316 316 316 316 317 317 316 315 313 312 311 310 308 307 309 310 310 309 308 308 307 307
320 320 321 321 322 322 322 321 321 320 319 318 318 318 319 320 320 320 317 316 317 317 317 317 316 316 317 316 316 315 315 316 316 316 315 314 313 313 313 314 315 315 316 316 316 316 315 315 315 315 313 311 309 308 309 308 309 309 309 308 307 307 307
320 321 321 322 322 321 321 320 320 319 319 318 317 316 316 316 317 317 315 315 315 315 316 316 316 315 315 314 314 315 317 317 316 316 315 314 315 315 314 315 315 316 315 315 315 315 315 315 315 316 314 312 310 309 310 310 309 309 309 307 307 307 307
321 321 321 321 321 320 320 319 318 318 317 316 314 314 313 313 314 314 314 314 314 314 314 314 314 314 313 313 313 315 317 316 316 315 314 315 316 316 316 315 315 315 315 315 314 314 315 315 315 315 315 312 311 311 312 312 311 310 308 308 307 308 308
322 321 321 321 321 320 319 319 317 316 315 314 314 313 313 313 312 312 313 313 313 312 312 312 312 313 312 312 312 314 316 316 316 315 315 316 316 315 316 315 315 315 315 314 314 314 314 315 315 315 315 314 314 314 314 314 313 311 309 308 308 308 308
322 321 321 321 320 319 319 317 315 314 314 314 314 313 313 313 312 312 313 313 312 312 311 312 312 312 312 313 313 315 316 317 317 316 316 316 316 315 316 315 315 314 314 314 313 314 314 315 315 315 315 315 315 315 314 314 313 312 310 309 309 309 309
321 320 319 318 317 317 317 316 314 312 313 315 315 314 313 313 312 312 312 313 312 313 313 313 312 313 313 313 314 315 315 316 316 315 315 315 315 315 315 315 314 314 314 314 313 313 314 315 315 315 314 314 314 314 314 314 313 313 312 311 310 309 309
319 317 317 317 315 314 314 314 314 313 313 314 315 315 314 313 313 312 313 313 313 313 314 313 313 314 314 314 314 315 315 315 315 315 314 314 314 313 313 313 313 313 313 314 314 314 314 315 315 314 314 314 314 314 314 314 314 314 313 312 311 310 310
319 318 318 319 319 317 313 311 311 312 313 314 316 316 314 314 315 313 312 313 314 314 314 314 313 313 314 314 314 314 314 314 314 314 314 314 313 312 312 311 311 311 312 312 314 314 314 314 315 315 314 314 314 315 315 315 315 314 314 313 312 311 311
322 322 321 321 321 321 316 312 312 314 316 318 319 318 315 314 315 315 313 313 314 314 315 315 313 313 314 315 314 314 314 313 313 314 314 313 313 313 313 313 313 314 314 313 314 316 315 315 315 315 314 314 314 314 315 314 314 315 315 314 313 312 312
324 323 323 322 322 321 319 318 318 319 319 320 321 319 316 314 314 315 315 315 314 315 315 315 315 314 314 315 315 315 313 313 314 315 314 313 313 314 315 315 315 316 317 316 316 316 317 317 316 316 316 315 314 314 314 314 314 314 314 314 314 314 314
323 322 322 322 322 322 321 321 322 322 322 321 321 320 317 315 315 315 315 315 315 315 315 315 316 315 315 315 316 316 315 314 315 317 316 315 314 315 315 316 316 317 317 317 317 317 317 317 317 317 316 316 316 315 315 315 314 314 314 314 314 314 314
321 321 321 321 322 323 322 322 322 322 323 322 322 321 319 318 317 317 315 315 315 315 316 316 315 315 314 314 315 316 316 316 315 316 317 317 317 316 316 317 318 318 318 318 318 317 318 317 317 317 316 317 317 316 316 315 315 315 314 314 314 314 314
316 318 319 320 321 322 322 322 322 322 322 323 323 323 322 322 321 320 319 318 318 318 318 317 317 315 314 314 314 315 315 315 316 316 316 317 318 318 318 318 319 319 318 318 318 318 318 318 317 317 317 316 316 316 315 315 315 315 315 315 315 314 313
309 310 312 315 316 317 317 318 320 322 322 323 323 323 323 322 322 321 321 320 321 321 320 320 319 318 316 315 314 315 315 315 316 317 317 317 318 319 319 319 319 319 319 318 318 318 318 318 317 317 317 316 316 316 316 315 315 314 314 315 315 314 314
305 306 307 308 309 309 310 311 313 315 316 319 321 321 322 322 322 322 322 321 321 321 321 321 321 320 319 317 316 315 315 315 316 317 318 318 319 320 320 320 320 320 320 319 318 317 317 317 317 317 317 317 316 316 315 315 315 314 313 313 313 314 313
303 304 304 305 305 305 305 306 306 307 308 310 312 314 315 316 317 318 320 321 321 322 321 321 321 321 321 320 319 317 315 315 316 318 320 320 320 320 320 320 320 320 320 319 318 317 317 316 317 317 317 317 316 315 315 314 314 314 312 311 310 311 310
302 302 302 303 303 303 303 303 303 304 304 305 305 305 307 308 309 312 314 317 319 321 321 321 321 321 321 321 321 319 318 317 318 320 321 321 321 321 321 321 320 319 319 319 318 317 316 316 317 317 316 316 316 315 314 313 313 312 311 309 309 309 309
301 301 301 301 301 301 302 302 302 302 302 302 303 302 303 305 306 307 308 310 313 316 318 320 320 321 321 321 321 321 320 319 319 319 321 321 321 321 321 321 320 318 318 319 317 316 315 315 316 316 315 314 314 314 312 311 310 310 309 308 307 307 306
300 300 300 300 300 300 301 301 301 301 301 301 302 302 302 303 304 305 305 306 307 309 312 315 318 320 320 320 320 320 320 320 319 319 319 320 320 321 321 320 320 319 318 317 316 316 315 314 314 314 315 314 314 313 311 309 309 308 307 306 305 304 303
300 300 300 300 300 300 300 300 300 300 301 301 301 301 302 302 302 303 303 304 304 304 305 308 312 316 318 319 319 319 320 320 319 319 319 319 319 319 319 319 318 318 318 318 317 315 314 313 313 313 313 313 313 313 310 308 307 307 306 304 303 303 303
299 299 299 299 299 300 299 299 300 300 300 300 300 300 301 301 301 302 302 302 302 303 303 304 306 309 314 317 317 318 319 319 319 319 319 319 319 318 318 317 317 317 317 317 317 315 314 314 314 313 313 313 313 313 311 308 306 305 304 303 303 303 302
299 299 299 299 299 299 299 299 299 299 299 299 300 300 300 300 301 301 301 301 301 302 303 303 304 306 309 313 316 318 318 318 318 318 319 319 318 318 317 317 317 316 316 316 316 315 315 314 314 313 312 312 313 312 309 307 305 304 303 303 302 302 302
298 298 299 299 299 299 299 299 299 299 299 299 299 299 299 299 299 299 300 301 301 301 301 302 303 304 306 309 312 316 318 317 316 317 318 318 318 318 317 317 316 315 315 315 314 314 314 313 314 314 313 313 312 310 307 305 304 303 303 302 301 301 300
298 298 298 298 298 298 298 298 298 298 298 298 298 298 298 298 298 298 298 298 299 300 300 301 301 302 304 306 308 310 313 316 316 316 317 317 318 317 317 316 315 314 314 314 313 313 312 312 312 312 313 313 311 309 306 305 304 303 302 301 300 299 299

ECMWFFLT1_925_thetae_027.txt.gz
Theta_e
332 332 333 332 331 330 329 329 329 329 330 330 330 330 330 330 330 330 330 330 330 331 331 331 332 332 331 332 332 331 330 330 330 330 330 330 329 329 329 328 327 326 324 322 322 322 324 325 322 322 324 325 325 326 325 324 323 322 319 313 308 306 307
330 331 331 331 330 328 327 327 327 327 327 327 327 327 327 328 327 328 328 329 329 330 330 331 332 332 332 332 332 331 330 330 330 330 330 330 329 329 328 327 326 324 322 321 321 320 322 325 324 320 320 324 325 325 325 324 323 320 314 310 307 306 306
329 329 330 328 328 327 326 326 326 326 326 326 326 325 325 326 325 326 326 327 328 329 329 330 332 332 332 332 331 331 331 329 329 329 330 330 329 329 328 327 325 322 320 319 320 320 320 321 323 319 318 322 323 323 325 325 322 316 311 309 307 305 305
328 329 329 327 327 326 326 326 326 326 326 326 325 325 325 325 324 324 324 325 326 328 328 329 330 331 331 331 331 330 330 329 329 329 329 329 329 329 328 327 325 323 321 319 319 321 319 318 320 318 316 319 321 320 323 324 319 313 311 309 306 305 305
328 328 328 327 326 326 326 326 325 325 325 325 325 325 325 325 324 324 324 324 325 327 328 327 328 329 330 330 329 329 329 328 328 328 328 328 328 328 328 327 326 323 321 321 320 321 321 320 320 317 315 318 319 317 319 319 314 311 311 308 305 305 304
327 326 326 326 326 325 325 325 325 325 325 325 325 324 324 324 324 324 324 324 325 326 327 327 327 327 329 330 329 328 329 328 328 328 328 328 327 327 328 328 327 325 321 320 321 321 321 320 318 315 314 318 317 314 314 313 311 311 311 309 307 305 304
324 323 323 325 326 325 324 325 325 325 325 324 324 324 324 324 324 324 324 325 326 326 326 326 326 326 328 329 329 328 328 328 328 327 327 327 327 328 328 328 327 326 323 321 320 320 320 319 318 315 313 314 315 313 312 312 311 311 311 310 308 307 306
322 322 323 324 325 325 324 324 324 324 323 323 323 324 324 324 323 324 325 325 325 325 325 324 325 327 328 328 329 328 328 328 327 327 327 326 327 328 328 328 327 326 325 321 319 319 319 319 318 316 315 313 313 311 310 312 312 311 311 311 309 308 307
321 322 323 323 324 324 324 324 324 323 322 321 323 324 324 323 323 323 323 324 324 324 325 325 327 328 328 329 329 328 328 327 327 327 327 326 327 328 328 328 327 327 325 323 320 319 318 317 316 316 316 315 313 311 309 311 310 310 312 311 309 309 307
320 320 321 322 322 323 323 324 324 323 322 322 323 324 324 323 323 323 323 323 324 326 326 328 328 328 329 328 328 328 327 327 327 325 324 324 326 327 327 326 326 326 326 324 323 320 316 315 315 314 314 314 314 313 312 314 312 310 312 311 309 309 308
319 320 320 321 322 323 323 324 323 322 322 323 323 323 323 323 322 322 323 323 325 327 328 328 328 327 328 328 328 327 325 323 321 319 319 321 321 321 320 319 319 322 323 323 324 322 316 313 314 314 314 314 313 313 313 315 314 311 311 311 309 308 308
321 321 321 321 322 322 323 323 323 323 323 324 323 324 323 323 321 321 322 323 324 326 327 327 327 327 327 327 325 322 318 315 315 315 316 317 316 316 315 315 315 315 317 318 319 321 318 314 313 314 315 315 313 312 311 312 313 311 310 310 309 307 307
322 322 322 321 321 321 322 323 323 323 323 323 322 323 323 322 321 320 321 323 323 324 325 325 325 325 325 322 318 315 314 313 313 313 314 314 315 315 315 315 315 315 316 316 316 320 322 316 313 314 315 315 313 312 311 310 311 310 310 310 309 307 307
321 321 321 320 321 321 322 323 323 322 322 321 320 320 322 322 320 319 319 322 323 322 323 323 323 323 322 319 316 314 314 313 313 313 314 314 315 316 315 315 315 315 316 317 317 320 322 317 313 313 314 313 312 310 309 309 308 309 310 310 309 308 307
320 320 320 320 321 322 322 322 322 322 320 318 317 319 321 321 321 319 317 318 320 319 319 319 320 321 321 320 317 315 314 313 313 313 313 313 313 315 316 315 316 316 316 318 318 320 320 316 314 313 313 312 311 309 308 308 308 309 309 309 309 308 307
320 320 320 321 321 322 322 322 321 320 319 317 318 318 318 319 319 318 316 316 317 317 317 316 317 318 318 318 316 315 315 315 314 314 313 312 312 314 316 315 315 316 315 316 316 317 317 316 315 314 313 312 311 309 308 307 308 309 308 308 308 307 307
320 320 320 321 322 322 321 321 320 319 317 317 316 315 314 315 316 315 314 315 315 315 316 315 315 315 315 315 314 315 316 316 315 315 314 313 313 314 315 315 315 315 315 315 315 315 315 315 315 315 314 313 312 310 308 308 308 309 308 308 307 307 307
321 321 321 321 321 320 320 320 319 318 316 315 313 313 312 312 313 313 313 314 314 313 313 314 314 314 314 313 312 314 316 316 315 315 314 315 315 315 315 315 315 315 314 314 314 314 315 315 315 315 314 313 312 310 309 308 309 310 309 309 308 308 307
321 321 320 320 320 320 319 318 318 317 315 313 313 313 313 312 311 312 313 313 313 312 311 312 312 313 313 313 312 313 315 316 315 314 315 316 316 315 315 315 315 314 314 314 314 314 314 314 315 315 314 313 311 310 310 310 310 311 311 310 309 307 307
321 321 320 319 319 319 319 317 316 316 314 313 314 314 312 312 312 312 313 312 312 312 311 312 312 312 312 313 312 314 315 316 316 315 315 316 315 315 315 315 314 314 314 314 314 314 314 314 314 315 315 314 313 313 313 312 312 312 312 311 309 308 308
320 319 318 318 318 318 318 316 315 314 314 314 315 314 313 313 312 311 312 312 312 312 312 312 312 311 312 313 313 314 315 316 316 316 315 315 315 315 315 315 314 314 314 314 314 314 314 314 314 315 315 314 314 314 314 314 313 313 312 311 310 309 308
318 316 316 317 317 316 316 316 315 314 314 313 314 315 316 315 313 312 312 312 312 313 313 313 313 312 313 314 314 314 315 315 315 316 315 314 315 315 315 314 314 313 313 313 313 314 314 313 314 314 314 314 314 314 314 314 313 313 312 312 310 310 309
317 316 317 317 317 316 314 313 314 314 314 314 316 318 318 316 314 314 313 312 312 313 314 314 313 312 312 313 314 313 314 315 315 315 315 314 314 314 313 313 312 312 312 312 312 312 313 314 314 314 314 314 314 314 314 314 314 313 313 313 312 311 311
319 319 319 318 319 318 316 315 316 317 317 318 319 320 320 317 315 314 314 313 313 313 314 314 314 313 312 313 313 314 314 314 314 314 314 314 313 313 313 312 312 313 313 313 314 313 314 314 315 315 315 314 314 314 314 314 314 314 314 314 313 313 312
321 320 320 320 320 320 320 320 321 321 322 322 321 321 320 318 316 315 314 314 313 313 314 314 315 315 314 313 313 313 313 313 313 313 313 313 313 314 313 313 313 314 314 315 316 316 316 316 316 316 316 316 315 314 314 314 314 314 314 314 314 313 313
317 318 318 319 319 320 320 321 322 322 322 323 323 322 322 321 320 319 318 317 316 315 314 314 315 315 315 315 314 314 314 314 314 314 313 313 314 315 314 313 313 314 315 315 316 316 316 317 317 317 317 317 316 316 315 315 315 315 314 314 314 314 314
308 309 310 312 313 314 314 315 316 317 318 319 321 321 321 321 321 321 321 321 320 319 318 317 316 316 315 315 315 315 315 315 315 315 315 314 314 315 315 315 314 315 316 316 316 316 317 317 317 317 317 317 316 316 316 316 316 316 315 315 314 314 314
302 303 303 304 306 306 307 308 309 309 310 312 313 314 315 316 316 318 319 320 321 321 321 320 320 319 318 318 317 316 316 316 316 316 316 316 315 315 315 315 315 316 316 317 317 317 317 317 317 317 317 317 316 316 316 316 316 315 315 314 315 314 314
301 301 301 301 302 302 303 304 304 304 305 306 307 308 309 310 311 312 313 315 317 319 320 320 320 321 321 321 320 320 318 317 316 316 316 316 316 316 316 316 317 316 317 318 318 318 318 318 317 317 316 316 316 316 316 316 315 315 315 314 313 313 313
300 300 300 300 300 300 301 301 302 302 303 304 304 304 305 304 305 306 307 309 311 314 316 317 317 319 320 320 320 321 320 320 320 318 317 316 315 315 316 317 318 318 318 319 319 319 319 318 317 316 315 316 316 316 315 315 315 315 314 313 311 310 311
299 299 299 299 299 299 299 300 300 300 300 301 301 301 302 302 302 303 304 305 306 308 310 311 312 313 316 317 318 319 320 320 320 320 320 319 318 317 316 317 318 319 319 319 319 319 319 318 318 317 316 316 315 315 315 315 315 314 313 312 310 309 309
299 299 299 299 299 299 299 299 299 299 299 299 300 300 300 300 301 301 302 302 302 303 305 306 306 308 309 311 314 316 318 318 319 320 320 320 320 319 318 318 319 320 320 319 318 318 318 318 318 317 316 316 315 315 316 315 313 313 312 311 310 308 308
299 299 299 299 299 299 299 299 299 299 299 299 299 299 299 299 300 300 300 301 301 301 302 303 303 304 305 306 307 309 312 314 315 317 318 319 319 319 319 319 319 319 320 319 319 319 318 318 317 315 315 315 315 316 315 313 311 311 311 310 308 306 305
298 298 298 298 298 299 299 299 299 298 299 299 299 299 299 299 299 299 299 299 300 300 300 300 301 302 302 303 303 304 306 308 310 313 315 316 317 318 318 319 318 318 319 319 319 319 318 318 318 315 313 314 314 314 314 312 311 311 310 308 306 304 303
298 298 298 298 298 298 298 298 298 298 298 298 298 298 298 298 298 298 298 298 299 299 299 299 300 300 301 301 301 302 302 304 306 309 311 313 315 317 318 318 317 316 317 318 318 318 318 318 318 315 312 312 313 313 313 312 311 310 308 305 304 303 302
297 297 297 297 297 297 297 297 298 297 298 298 297 298 298 298 297 298 298 298 298 298 298 298 298 299 299 300 300 301 301 302 303 306 308 310 312 314 316 317 317 316 316 317 317 317 317 317 317 315 313 312 313 313 312 311 310 309 305 303 303 303 303
297 297 297 297 297 297 297 296 296 296 296 296 296 296 296 296 296 297 297 297 297 297 297 298 298 298 298 298 299 300 300 301 302 304 306 307 308 310 312 313 315 316 316 316 316 316 316 315 316 316 314 313 313 313 311 311 310 306 303 302 303 303 303

ECMWFFLT1_925_thetae_030.txt.gz
Theta_e
330 331 331 332 332 332 332 331 331 331 332 332 331 331 331 331 331 331 331 331 332 332 332 332 332 332 330 329 329 329 329 329 329 329 329 328 328 328 328 327 326 326 325 323 323 323 322 322 322 323 324 324 325 325 324 322 319 312 307 306 307 308 308
330 331 332 332 332 331 330 330 330 330 330 330 330 330 329 330 330 330 331 331 331 331 332 332 332 332 331 330 329 329 329 329 329 329 329 328 328 328 327 327 325 323 323 322 322 322 322 322 322 322 322 323 323 323 323 321 315 308 306 306 306 306 307
331 331 332 332 331 329 329 329 329 328 329 328 328 328 327 327 328 329 329 330 330 330 331 331 332 332 331 331 331 330 330 330 330 329 330 329 328 328 327 326 324 322 321 320 321 322 321 321 321 321 322 323 322 320 322 320 311 306 306 306 306 306 306
331 331 332 331 329 328 326 326 326 326 326 326 325 325 325 325 325 326 327 328 329 329 330 330 331 332 332 331 331 331 330 330 329 329 330 329 328 328 327 327 325 323 322 321 320 322 321 319 320 320 320 322 320 320 322 318 309 306 306 305 305 305 305
330 330 330 329 328 326 325 325 325 325 325 324 324 324 324 324 324 324 325 326 327 328 328 329 330 331 332 331 331 331 330 330 329 329 329 329 329 328 327 327 326 324 324 323 321 322 322 321 321 319 318 320 319 318 320 315 306 305 306 304 305 305 305
328 328 327 327 326 325 325 325 325 325 325 324 324 324 324 324 324 323 323 324 326 327 327 327 328 329 330 331 330 330 329 329 329 328 328 329 328 328 328 327 325 325 324 322 321 321 322 322 321 318 317 319 317 315 315 311 306 307 306 304 305 304 304
326 326 326 325 325 325 325 324 324 324 324 324 324 324 324 323 323 323 323 324 326 326 326 326 327 328 329 330 329 328 329 328 328 327 328 328 328 328 328 328 326 325 323 321 321 321 321 321 321 319 316 316 315 313 312 310 309 309 307 305 305 303 302
326 326 326 325 325 325 324 323 324 324 324 324 324 324 323 323 323 324 324 325 326 326 326 326 325 326 328 329 329 328 328 328 328 327 327 327 327 327 327 327 327 325 322 321 320 320 321 321 321 321 318 316 314 312 311 311 311 311 310 307 306 305 303
326 326 326 325 325 325 324 324 324 324 324 324 323 324 323 323 323 323 324 325 325 325 325 325 325 326 327 328 329 328 328 328 328 327 327 326 326 327 327 327 328 327 324 322 320 320 321 320 320 320 319 318 317 314 312 312 311 310 311 309 307 307 305
325 324 324 325 325 324 324 324 323 323 322 322 323 323 323 323 322 322 323 323 324 324 325 326 327 327 328 328 328 328 328 328 328 327 327 326 326 327 327 328 327 327 325 322 320 320 320 320 319 319 317 315 317 316 315 316 314 311 311 310 307 307 306
324 322 323 324 325 324 324 324 323 322 322 321 323 323 323 323 322 322 322 322 323 324 326 327 327 328 328 328 328 328 327 327 327 326 325 324 326 327 327 328 327 327 326 323 320 319 319 319 319 318 316 313 313 314 315 318 317 313 311 311 308 307 306
322 322 323 324 324 324 323 323 323 322 322 322 323 323 323 323 322 321 322 322 324 326 327 328 328 327 328 328 328 327 325 324 323 322 322 323 325 326 325 326 326 326 326 324 321 320 319 318 318 317 315 313 312 312 312 315 317 314 311 310 309 307 306
321 321 322 322 323 323 323 323 323 322 322 322 323 323 323 323 321 320 321 322 323 325 326 326 326 326 327 326 325 322 319 317 317 317 319 320 320 319 319 319 321 324 326 325 323 323 321 317 317 317 315 313 313 311 310 312 314 313 311 310 308 307 306
320 320 320 321 322 323 323 323 322 322 322 323 323 323 322 322 320 319 321 322 322 323 324 324 325 325 324 321 318 316 313 313 314 315 316 316 315 314 315 315 315 318 322 324 324 324 322 317 315 316 314 313 314 312 311 311 310 310 310 310 309 307 307
320 321 321 321 321 322 322 322 322 322 322 321 321 322 322 321 319 319 320 322 323 322 322 323 323 323 321 317 314 313 313 313 313 314 314 314 314 314 315 314 314 315 316 319 321 322 322 317 314 315 314 313 314 313 312 311 309 309 310 310 309 308 307
321 322 321 321 321 321 322 322 322 322 321 319 318 320 321 320 319 319 318 320 321 320 320 320 320 321 320 319 317 315 314 313 313 313 314 314 315 315 315 314 315 315 315 316 316 317 320 318 314 314 314 313 314 314 313 311 309 309 309 309 309 308 307
321 321 320 320 321 321 322 322 322 320 318 317 318 319 319 319 319 318 317 317 317 317 317 316 316 318 319 319 318 316 315 314 313 313 313 313 314 315 315 315 314 315 316 318 317 316 319 320 316 314 314 313 313 313 312 311 309 308 308 309 309 308 308
320 320 320 320 321 322 322 321 320 319 317 317 317 316 316 316 316 316 315 315 315 315 315 315 315 315 316 315 314 314 315 315 314 314 313 312 312 314 315 315 315 315 315 316 317 317 319 320 318 315 314 313 313 313 311 310 308 307 308 309 309 308 307
320 320 321 321 321 321 321 320 319 318 316 315 314 313 313 313 313 314 314 313 314 313 313 313 313 313 314 313 313 313 315 316 315 314 314 313 313 314 315 315 315 315 315 315 315 315 316 316 315 315 315 314 314 313 311 309 308 307 308 309 309 308 308
320 321 321 321 321 320 320 319 318 317 315 313 312 312 312 312 312 312 313 313 313 312 311 311 312 312 312 312 312 312 314 315 315 314 314 315 314 314 314 314 314 314 314 314 314 314 314 314 314 314 314 314 313 313 311 309 308 308 308 309 309 309 308
320 320 320 320 319 319 319 318 317 317 314 312 313 313 313 312 312 311 312 312 312 312 311 311 312 311 312 312 312 312 313 314 315 315 315 315 315 315 314 314 314 314 314 313 313 313 313 314 314 314 314 314 313 312 311 309 308 308 309 310 310 309 308
320 319 319 319 318 318 317 317 316 315 314 313 314 314 313 314 313 312 311 312 312 311 311 312 313 312 311 312 313 313 313 314 315 316 316 316 315 315 315 314 314 313 313 313 313 313 313 313 314 314 314 314 313 312 311 309 309 310 310 310 310 309 308
319 318 318 318 317 317 316 316 316 315 314 314 313 314 316 317 316 314 313 312 312 312 312 313 313 313 312 312 312 313 313 314 315 315 315 315 315 315 314 314 314 314 313 312 312 312 312 313 313 313 314 314 314 314 313 312 312 312 312 311 311 310 308
318 317 317 317 317 317 317 316 315 315 315 315 315 316 319 319 317 314 314 313 313 312 312 313 313 313 313 312 312 312 313 313 314 314 314 315 314 314 314 314 314 313 313 312 312 312 312 312 313 313 314 314 314 314 314 314 314 313 313 312 312 311 310
316 316 317 317 318 318 319 318 318 319 318 318 318 319 319 319 317 315 314 314 313 312 312 312 312 313 314 313 313 312 313 313 313 314 314 314 314 314 314 314 313 313 312 312 312 313 313 314 314 314 315 315 315 314 314 314 313 313 313 313 312 312 312
311 311 313 315 317 318 318 318 318 318 319 320 320 319 319 319 319 318 317 316 316 316 315 314 314 313 314 314 314 313 313 313 313 313 313 314 314 313 313 313 313 312 312 313 313 313 313 315 315 315 315 316 316 316 315 315 314 314 313 313 313 313 313
305 305 306 308 311 311 310 309 309 311 313 314 315 316 316 317 318 319 319 319 319 319 319 318 318 317 317 316 316 315 315 314 314 314 314 314 314 314 314 314 314 313 313 313 314 313 313 314 315 315 316 316 316 316 316 316 315 315 314 314 314 314 314
302 301 302 303 304 304 304 303 303 304 305 306 307 308 309 310 312 314 315 317 318 318 317 318 319 320 319 319 319 318 318 317 317 316 316 316 315 315 315 315 315 315 315 315 315 315 314 314 315 315 315 316 316 316 316 316 316 316 315 315 315 315 315
302 302 301 301 301 301 301 301 301 301 302 303 303 303 304 305 305 306 308 310 312 311 311 313 315 317 318 319 320 320 320 320 320 320 319 319 318 318 317 316 316 315 316 315 315 316 316 316 316 316 316 316 316 316 316 316 316 316 316 315 315 315 315
302 302 303 303 301 300 300 299 299 300 300 301 301 301 301 301 302 303 304 305 305 305 305 306 308 310 312 314 316 318 319 320 320 320 320 320 320 320 320 319 318 317 316 316 315 315 316 317 317 317 316 316 316 316 316 316 316 316 315 315 315 315 315
300 300 302 303 301 301 302 301 300 299 299 299 299 299 299 300 300 300 301 301 302 302 302 302 303 304 305 307 308 310 312 314 316 318 319 320 320 320 320 320 320 319 319 318 317 316 317 317 318 318 317 317 316 316 316 316 316 315 315 314 314 314 314
299 299 299 300 299 300 301 301 300 300 299 298 299 298 298 299 299 299 299 299 300 300 300 300 300 301 301 302 303 304 305 306 308 310 312 314 317 318 319 319 319 319 319 319 318 318 318 318 318 318 318 317 316 316 317 317 316 315 313 313 313 313 312
298 298 298 298 298 298 298 299 299 299 298 298 298 298 298 298 298 298 298 298 299 299 299 299 299 299 300 300 300 301 301 301 302 303 305 306 309 312 314 316 317 318 318 318 318 318 318 318 318 318 318 317 316 316 317 316 316 315 313 312 312 312 310
297 297 297 297 298 298 298 298 298 298 297 298 298 298 298 298 298 298 298 298 298 298 298 298 298 298 299 299 299 299 300 300 300 300 301 302 303 305 307 309 310 312 314 315 316 317 317 317 317 317 317 317 316 316 316 315 315 314 313 312 311 310 308
297 297 297 297 297 297 297 297 297 297 297 297 297 298 298 298 298 298 298 298 298 298 298 298 298 298 298 298 298 298 298 298 299 299 300 300 301 302 304 305 306 307 308 311 312 314 315 316 316 316 316 317 317 316 315 314 313 313 312 311 310 308 306
296 296 296 296 296 296 296 296 296 296 296 296 297 297 297 297 297 297 297 297 297 297 297 297 297 298 298 298 298 297 297 297 298 298 298 299 300 301 302 303 304 304 305 307 308 310 312 313 314 315 315 315 316 315 314 313 312 312 311 309 307 306 305
295 295 295 295 295 295 295 295 295 295 295 296 296 296 296 296 296 296 296 296 296 296 296 296 296 296 297 297 297 297 297 297 297 297 297 298 298 300 301 302 303 303 304 305 306 308 310 311 313 314 315 315 314 314 313 311 311 310 308 306 305 305 304

ECMWFFLT1_925_thetae_033.txt.gz
Theta_e
334 333 333 332 333 333 333 333 333 333 333 333 333 332 332 332 332 332 331 331 331 331 331 331 331 331 330 330 330 330 329 329 329 332 331 329 329 328 327 327 327 327 326 327 327 326 325 324 323 324 323 323 322 321 319 314 308 307 308 308 309 310 312
332 332 332 332 333 333 333 332 332 332 332 332 332 331 331 331 331 331 331 331 331 331 331 331 331 331 330 329 330 330 329 329 329 330 330 328 328 328 327 327 326 326 325 326 327 327 326 324 323 323 323 323 322 321 318 311 306 307 307 307 308 309 309
331 331 332 333 333 333 332 331 331 332 331 331 330 330 330 330 330 331 331 331 331 331 331 331 331 331 330 329 329 330 330 329 328 329 329 328 328 328 327 327 326 325 325 326 327 327 327 326 324 323 323 323 322 321 318 310 306 307 306 306 307 307 308
330 331 333 333 332 331 331 330 330 330 329 329 328 327 328 328 328 329 330 331 331 331 331 331 331 331 330 329 329 328 329 329 328 328 328 328 328 327 327 327 326 326 326 326 326 326 326 327 325 323 323 322 322 321 317 309 307 307 306 306 306 306 306
330 331 332 331 330 329 328 328 328 328 327 326 326 325 325 325 325 326 327 328 330 331 331 330 331 332 331 330 329 328 327 328 328 328 328 329 329 328 329 328 325 325 327 326 326 326 327 327 325 324 323 322 321 320 315 309 308 308 307 306 306 306 305
330 330 330 329 327 326 326 326 326 326 325 325 324 324 324 324 324 324 325 326 328 330 330 329 331 332 331 330 330 329 328 328 328 328 328 329 329 329 330 328 325 324 325 325 325 326 327 327 326 324 323 322 321 318 314 311 309 308 307 307 306 306 306
328 328 328 327 324 323 323 323 324 324 324 324 324 324 324 324 323 323 323 324 327 329 328 328 329 331 331 331 330 329 329 329 328 328 328 329 330 330 330 329 327 325 324 323 323 325 326 326 326 324 322 322 321 318 314 312 311 309 308 307 306 306 305
325 325 325 324 323 323 323 323 323 323 323 324 324 324 323 323 323 324 324 324 326 327 327 327 328 329 330 331 330 329 329 329 329 328 328 328 328 329 329 329 328 326 324 322 322 323 325 325 325 324 323 322 320 318 316 313 312 311 309 307 306 306 305
324 324 323 323 323 323 323 323 323 323 324 324 324 324 323 323 324 324 325 325 326 327 326 326 326 327 328 329 330 329 328 328 328 327 327 327 327 327 328 328 328 327 324 322 322 322 324 324 324 323 323 322 319 317 317 315 314 313 310 308 307 306 305
324 324 324 324 324 324 324 323 323 324 324 323 323 324 323 323 323 323 323 324 325 325 325 325 325 326 327 328 329 328 327 328 328 327 327 327 326 327 327 327 328 328 325 322 321 321 322 322 322 322 322 321 318 316 317 315 315 314 311 310 309 306 305
325 325 324 324 324 325 324 324 324 324 323 322 322 323 323 322 322 322 322 323 323 324 324 325 326 327 328 328 328 328 328 328 327 327 327 326 326 326 327 327 328 328 326 324 321 320 320 321 321 322 321 320 318 316 316 315 315 315 313 311 310 308 306
326 326 325 325 325 325 324 324 324 323 322 321 322 323 323 322 322 321 322 323 324 325 326 327 327 327 328 328 328 327 327 327 327 326 326 325 325 326 327 327 328 328 327 325 321 319 320 321 320 320 320 318 316 316 317 315 314 316 314 312 311 309 307
326 326 325 324 325 325 324 324 323 322 321 322 322 323 323 322 321 320 321 323 325 327 327 327 327 327 327 327 327 326 325 325 325 324 323 323 325 327 327 327 328 327 326 325 322 319 319 320 320 320 319 317 314 313 315 316 314 315 315 312 312 310 308
327 325 324 323 324 324 324 323 323 322 322 322 323 323 323 322 320 320 321 323 325 326 326 326 326 327 326 325 323 321 319 318 318 319 320 322 324 325 325 326 327 327 326 325 322 319 318 319 318 319 318 317 314 311 313 315 314 315 314 311 312 311 307
325 323 323 323 324 324 323 323 323 322 322 323 323 323 322 321 319 320 322 323 323 324 324 324 324 322 319 317 316 314 313 313 314 316 317 318 318 319 319 320 321 323 326 326 324 321 320 320 318 318 317 317 315 312 312 314 314 315 314 311 311 311 307
322 321 322 322 323 323 323 323 322 322 323 323 323 322 322 320 319 319 322 323 322 322 322 322 321 318 315 315 314 313 312 313 314 315 315 315 315 315 315 315 315 317 320 324 325 324 323 322 319 316 316 316 315 314 312 313 313 314 314 313 312 311 309
320 320 320 321 322 322 322 322 322 322 322 321 321 321 321 320 319 318 319 320 320 319 318 319 319 318 318 318 318 315 313 313 314 314 314 314 314 315 314 314 314 315 316 319 321 323 324 324 321 317 315 315 315 314 313 313 313 313 314 314 312 311 311
320 320 320 321 321 321 322 322 322 321 319 318 319 320 319 319 318 318 317 317 317 316 316 316 316 317 318 317 317 316 314 313 313 313 313 313 314 314 315 315 314 315 316 316 317 318 320 322 321 318 315 315 315 314 314 313 313 313 313 313 313 312 310
320 321 320 320 321 321 322 322 321 319 317 317 317 316 316 316 316 316 316 315 315 315 314 314 314 315 316 315 314 314 315 314 313 314 313 313 312 313 315 315 314 314 316 317 317 317 317 318 320 319 316 315 315 314 314 313 312 312 312 312 313 312 310
320 320 321 321 321 322 322 321 319 317 316 315 314 313 313 313 314 314 314 314 313 313 312 312 312 313 314 313 312 313 315 315 315 314 314 313 313 313 314 315 315 315 315 315 316 316 316 317 319 319 317 315 315 314 313 313 312 312 312 312 312 312 312
320 320 320 321 321 320 320 319 318 317 316 314 312 313 313 312 312 313 313 313 313 312 311 311 311 312 312 312 312 312 313 315 315 314 314 314 314 314 314 314 314 314 314 314 314 314 315 315 315 315 315 314 314 314 313 313 312 312 312 312 312 312 313
320 320 320 320 319 318 318 318 317 317 316 313 313 314 313 313 313 312 312 312 312 312 312 312 312 312 312 312 313 312 312 313 315 315 315 315 315 315 315 314 314 314 314 314 314 313 313 314 314 314 314 314 314 314 313 313 313 313 313 313 312 313 313
320 320 320 319 318 316 316 316 316 316 315 314 314 313 314 315 316 315 313 312 311 311 312 312 312 312 312 312 313 313 313 313 314 315 315 316 316 315 315 315 315 314 314 314 313 313 312 312 313 313 313 314 314 314 313 312 313 314 313 313 313 314 313
318 318 318 318 317 316 316 315 315 315 315 314 314 314 316 318 318 316 314 312 311 311 311 312 312 312 312 313 312 313 313 313 314 314 315 315 315 315 315 315 314 314 314 314 313 312 312 312 312 312 313 313 313 314 314 313 314 314 314 314 315 315 315
316 316 316 316 316 316 316 316 316 316 316 316 316 317 318 318 316 314 314 314 313 313 313 313 312 312 312 313 313 313 313 313 313 313 313 314 314 314 314 314 314 313 313 313 313 313 313 312 312 313 313 313 313 314 314 314 315 315 314 315 316 316 315
313 313 313 313 314 315 315 315 315 315 315 316 317 318 318 318 317 316 315 315 314 314 315 315 315 314 314 314 314 314 314 314 314 314 314 314 313 313 313 313 313 313 313 313 313 313 313 313 313 313 314 314 314 315 315 315 315 315 315 315 316 317 316
308 308 307 308 309 310 311 309 309 310 311 312 313 313 314 315 316 316 315 314 314 314 314 315 317 317 316 316 316 315 315 315 315 315 315 314 315 314 314 315 315 315 315 315 314 315 315 315 314 313 314 314 314 315 315 316 316 316 316 316 316 317 317
304 304 304 305 304 304 304 303 304 305 306 306 306 306 307 308 309 310 311 311 312 312 311 312 314 316 317 318 318 318 318 318 318 318 317 317 317 316 316 316 316 316 316 316 315 315 315 315 316 315 315 315 315 315 315 315 316 316 316 316 316 316 316
304 304 304 304 303 302 301 301 301 301 302 302 302 302 302 302 302 303 304 306 307 307 306 307 310 312 313 315 316 317 318 318 319 319 319 319 319 319 319 319 319 318 318 317 317 317 316 315 315 316 316 316 316 316 316 316 316 316 316 316 316 316 315
304 304 305 306 305 304 304 303 302 301 300 301 300 300 299 299 300 300 300 302 303 303 303 304 305 306 308 309 311 312 312 313 314 315 315 316 317 317 318 319 319 320 320 319 319 319 318 317 317 317 317 317 317 317 317 317 316 316 316 315 316 316 316
301 301 302 304 304 304 305 306 304 303 301 300 300 299 299 298 299 299 299 299 299 300 300 301 301 302 303 304 305 306 306 306 307 308 309 310 311 311 313 314 315 316 317 318 319 319 319 318 317 318 318 318 318 318 318 318 317 316 316 315 315 315 315
300 299 298 299 300 300 302 303 304 304 303 302 302 301 300 300 299 298 298 298 298 299 298 299 299 300 300 301 301 302 302 302 302 303 304 305 306 306 307 308 309 310 311 312 315 316 317 318 317 317 318 319 319 319 319 319 318 318 317 316 315 315 314
299 298 298 298 298 298 298 299 300 301 300 301 301 302 302 302 300 298 298 298 297 298 298 298 298 298 298 299 299 299 299 299 299 300 300 301 302 303 303 304 304 305 306 307 308 310 313 315 316 316 317 318 318 319 319 318 318 318 317 315 315 315 314
297 297 297 297 297 297 297 297 298 298 298 298 298 299 300 300 300 299 298 297 297 297 297 297 297 297 297 297 297 298 298 298 298 298 298 300 301 302 303 302 301 301 302 303 304 305 307 309 312 313 314 316 316 317 317 317 316 316 316 315 314 314 312
296 296 296 297 297 297 297 297 297 297 297 297 297 297 297 297 298 298 297 297 296 296 296 297 296 297 297 296 297 297 297 297 297 297 297 299 300 300 301 300 299 299 300 301 302 303 303 304 306 309 311 313 315 315 315 314 314 314 314 314 312 310 309
295 296 296 296 296 296 296 297 296 296 297 297 297 298 297 297 297 297 297 297 296 296 296 296 296 296 296 296 296 296 296 296 296 296 296 297 297 297 297 297 297 297 298 299 300 301 302 303 303 304 306 308 311 313 314 312 311 312 313 312 310 308 307
295 295 295 295 296 296 296 296 296 296 296 297 297 298 297 297 297 298 298 297 296 296 295 295 295 296 296 296 295 295 296 296 296 296 296 296 296 296 296 296 296 297 297 298 299 300 301 302 302 302 303 304 306 310 312 311 310 310 310 311 311 309 308

ECMWFFLT1_925_thetae_036.txt.gz
Theta_e
335 335 335 336 335 335 335 335 334 334 334 334 333 333 334 334 334 334 333 334 333 333 334 334 334 334 333 332 333 334 333 333 332 330 330 331 328 328 331 333 332 330 328 329 329 327 327 326 325 325 324 323 323 320 317 315 315 317 317 316 316 317 319
335 335 334 334 334 334 334 334 333 333 333 333 332 332 333 333 333 333 333 334 333 333 333 333 333 334 334 334 334 334 333 334 333 331 330 330 329 330 332 332 331 330 329 330 329 327 327 326 324 324 323 322 322 319 316 314 314 314 315 314 313 314 315
335 334 334 334 334 333 333 333 333 332 332 332 332 332 332 331 332 333 334 334 334 333 333 333 333 334 334 334 334 334 333 334 333 332 332 332 332 333 332 330 330 329 329 330 329 327 327 327 325 324 323 323 321 318 315 313 313 313 313 313 312 312 312
335 334 334 334 333 333 332 332 332 333 333 332 332 331 331 331 331 332 333 334 334 333 333 333 334 334 334 334 334 334 334 334 333 332 333 333 333 333 331 329 330 330 329 330 329 328 327 327 326 324 324 322 319 317 315 313 312 312 312 312 311 311 311
335 334 334 334 333 332 332 332 332 333 333 332 331 330 330 330 330 330 331 333 334 333 333 333 333 333 333 334 333 333 333 333 333 332 333 333 332 332 330 328 329 328 327 327 327 327 327 327 326 325 324 321 319 316 313 312 311 311 311 311 310 311 311
334 334 334 334 333 332 332 332 332 332 331 331 330 330 329 329 329 329 330 331 332 333 333 332 332 332 332 333 333 333 333 333 332 332 332 333 332 332 330 329 329 328 327 326 326 327 327 326 326 326 324 321 319 314 312 312 311 310 310 310 310 310 310
333 333 333 333 332 332 332 331 330 330 329 329 329 328 328 328 328 328 329 329 331 332 333 332 332 332 332 332 332 332 332 332 332 332 332 332 332 331 329 328 329 329 328 327 327 327 327 326 326 325 323 321 318 314 312 312 310 310 310 310 309 309 309
333 332 332 332 331 330 330 329 329 328 328 328 328 328 328 328 327 327 328 329 329 330 332 333 332 332 332 332 331 331 332 332 332 332 332 332 331 331 329 327 327 328 327 326 327 327 326 326 326 324 322 321 317 314 314 312 311 311 310 310 309 309 309
332 331 331 330 330 329 329 329 328 328 328 328 327 327 327 327 327 327 327 329 329 329 330 331 332 332 331 331 331 331 331 331 332 333 332 331 330 330 329 328 327 327 327 326 326 326 326 325 325 323 321 320 317 315 314 313 313 313 311 310 309 309 308
330 330 330 330 329 328 328 328 328 328 328 327 327 327 326 326 326 326 326 328 329 329 329 329 330 330 331 332 331 330 330 331 332 332 330 329 329 330 331 330 328 327 327 326 326 326 325 325 325 323 320 318 317 316 314 314 314 313 312 311 310 309 308
330 329 329 329 328 328 328 328 327 327 326 326 326 326 326 325 325 325 325 327 328 328 329 328 328 328 330 331 330 329 330 331 332 332 330 329 330 331 331 331 329 328 327 326 327 327 324 324 323 322 319 317 316 316 315 314 314 314 313 312 311 309 307
329 329 328 328 328 327 327 327 327 327 326 325 325 325 325 325 325 325 324 325 326 327 328 328 328 328 328 330 331 331 331 331 332 332 330 330 331 331 332 331 330 329 329 327 326 326 324 324 323 320 319 317 315 315 314 314 314 315 314 314 313 310 308
329 329 328 328 328 327 327 327 326 326 325 325 325 325 324 324 324 324 324 325 326 326 327 327 328 328 327 329 330 330 330 331 330 329 329 329 330 330 332 332 331 330 329 327 326 325 324 324 322 320 318 317 315 315 315 315 315 316 316 315 314 312 309
330 329 328 328 328 327 327 326 326 326 325 325 324 324 324 324 323 323 324 324 326 326 327 327 327 327 327 328 328 327 327 327 326 325 326 327 328 330 331 331 331 331 329 327 325 323 322 322 321 319 318 317 315 315 316 315 315 316 317 316 315 313 310
330 329 328 328 327 327 327 326 326 326 325 325 324 324 323 323 322 323 323 324 325 325 325 326 326 326 325 325 325 325 325 324 323 324 325 325 326 329 330 330 331 331 329 327 326 323 320 320 319 318 317 316 315 315 315 315 315 316 317 317 316 314 312
330 329 328 327 327 327 327 326 326 325 325 325 324 323 322 321 322 323 323 323 323 324 324 324 324 323 322 322 322 322 322 323 323 323 323 323 322 324 325 326 328 330 330 329 327 322 320 319 318 316 316 316 316 315 315 315 315 315 316 316 315 314 314
329 328 327 327 327 327 326 326 326 325 325 324 323 322 321 320 321 323 322 322 323 323 323 323 323 322 321 320 319 319 320 322 322 321 321 320 319 320 321 322 324 327 329 331 329 324 322 320 318 316 316 316 317 316 316 316 315 315 316 316 314 314 314
328 327 327 327 327 326 326 326 325 325 324 323 321 321 319 319 320 321 322 321 321 321 321 321 322 322 322 321 320 318 318 319 320 320 319 319 319 320 321 321 322 324 326 328 328 326 323 322 319 318 317 317 316 317 317 317 316 316 316 316 315 314 314
328 327 327 327 327 326 325 325 325 324 322 321 320 319 318 317 318 320 320 319 319 319 319 320 320 321 321 321 321 320 319 318 319 319 318 318 319 319 320 321 322 323 323 324 325 325 324 324 322 319 318 317 317 317 318 318 317 317 316 316 316 315 314
325 325 325 325 325 325 325 325 324 322 320 320 319 317 316 316 317 318 319 319 319 318 317 318 319 320 320 320 321 321 321 320 319 319 319 318 318 318 319 320 321 322 322 322 323 324 325 324 323 321 319 319 318 317 317 317 317 317 317 317 316 316 315
323 322 322 322 323 324 325 324 322 320 319 318 317 316 315 316 317 318 318 318 317 317 317 317 317 318 318 318 318 320 321 321 320 320 319 319 318 318 318 319 319 320 320 320 320 322 322 321 321 320 319 319 318 318 318 317 317 317 317 316 316 316 316
323 322 321 321 322 322 322 322 321 319 318 318 317 317 316 315 316 316 316 317 318 318 318 317 316 317 318 318 316 316 319 320 321 320 319 318 318 317 317 318 319 318 318 317 316 317 317 317 318 319 319 319 318 318 318 318 317 317 317 316 316 316 315
321 321 320 320 321 320 319 321 321 320 320 319 319 318 318 317 317 316 316 318 318 316 315 313 313 314 316 318 318 317 317 318 320 319 318 318 318 318 317 318 318 316 314 314 314 314 314 314 315 316 318 319 319 319 318 318 317 317 317 317 317 316 316
320 320 320 320 319 318 318 318 320 321 321 321 321 320 320 320 319 319 319 318 315 312 311 312 312 312 313 314 317 319 318 318 319 319 319 319 319 318 318 318 318 316 315 315 315 314 313 312 312 313 314 315 316 316 317 318 318 317 317 317 317 316 316
318 319 319 319 317 316 317 317 317 317 317 319 321 321 321 321 321 320 319 316 313 312 313 312 312 312 312 312 314 317 318 318 318 319 319 319 319 319 319 320 320 319 317 316 316 316 315 314 312 312 312 312 313 313 314 315 316 317 318 318 317 316 317
316 316 317 316 315 315 316 315 316 316 315 316 318 319 319 320 318 317 315 313 313 313 314 314 314 314 314 313 313 315 318 318 318 319 319 319 319 319 320 320 320 320 319 316 315 317 318 317 316 314 313 313 313 313 313 313 314 315 317 318 319 318 318
313 314 314 313 314 314 314 314 314 314 315 315 316 316 316 315 314 313 311 310 310 311 312 314 316 316 316 316 315 316 320 320 320 320 320 320 320 320 320 320 319 320 320 319 318 319 320 320 320 318 316 315 315 315 314 314 314 315 315 316 318 319 319
309 309 309 309 310 310 311 312 311 311 311 312 312 312 312 312 312 311 310 308 306 306 307 309 312 315 316 317 317 318 321 322 321 322 322 322 322 322 322 322 321 321 322 322 321 320 319 319 321 321 320 319 319 318 318 317 315 315 315 316 317 318 319
306 306 306 306 306 306 307 307 307 308 308 308 308 308 309 309 309 309 309 308 306 304 304 305 308 310 312 315 316 317 319 321 321 322 323 322 322 323 323 323 323 324 323 323 322 320 318 318 319 321 322 321 320 320 320 320 317 315 315 316 317 318 318
305 305 305 305 304 304 304 304 303 304 304 303 303 303 304 304 305 305 305 306 305 303 302 303 304 306 307 310 312 314 315 317 318 318 319 319 320 321 321 320 320 321 323 323 322 321 320 319 319 321 322 322 322 321 321 321 320 317 316 315 316 317 317
305 305 305 305 304 304 304 303 302 302 302 301 300 300 300 300 301 301 301 302 303 302 301 301 301 302 303 304 306 309 311 312 314 314 314 315 316 317 317 315 314 316 318 318 317 317 317 318 319 321 322 322 323 323 322 323 322 321 319 317 317 316 316
303 304 304 304 304 304 303 303 304 306 306 305 303 302 302 301 300 300 299 298 299 300 300 300 299 299 300 300 301 304 307 309 310 310 310 310 311 312 313 312 310 309 309 310 309 310 310 312 314 318 320 321 321 321 322 323 323 322 321 320 318 317 317
300 300 300 300 301 301 302 303 304 305 306 305 304 303 304 304 302 302 301 300 300 299 298 298 298 298 298 298 298 300 304 307 306 307 307 307 307 308 309 310 309 307 306 304 303 303 304 305 307 310 314 318 321 321 321 321 321 321 321 320 319 319 318
300 300 300 300 300 300 301 302 302 303 303 303 302 302 302 302 302 302 302 302 302 301 299 298 298 297 297 298 297 298 302 304 303 302 304 305 305 306 307 308 308 307 304 301 299 300 300 301 302 303 306 310 314 316 317 318 319 319 319 319 319 319 318
300 300 301 301 300 300 301 302 302 302 303 303 303 302 302 302 302 302 301 300 300 300 299 298 297 297 297 297 297 297 299 299 298 298 302 304 304 305 305 305 306 305 303 299 297 298 298 299 300 300 301 302 304 306 308 311 314 316 317 317 317 318 318
300 300 300 300 301 301 301 301 302 302 303 303 303 303 303 303 304 304 303 302 301 300 300 299 298 296 296 296 296 296 296 296 296 297 299 301 302 302 303 303 303 302 300 298 296 297 297 297 298 298 299 300 300 301 302 303 306 310 313 315 315 316 316
299 300 300 300 300 300 300 301 301 301 302 302 302 303 303 302 303 303 303 303 303 302 302 301 300 297 296 295 296 295 295 295 295 295 296 298 300 301 301 300 299 298 297 296 296 296 296 296 297 298 298 299 300 301 301 302 303 306 310 312 313 314 314

ECMWFFLT1_925_thetae_042.txt.gz
Theta_e
334 334 333 332 332 332 332 331 332 333 333 333 334 333 332 332 332 332 333 334 334 334 334 334 333 332 331 330 331 332 332 332 332 331 331 330 331 332 332 332 331 331 330 329 329 329 330 331 329 327 325 321 320 321 322 322 322 322 323 323 323 323 324
335 334 333 332 331 331 332 332 332 333 333 334 334 333 333 333 332 333 334 334 333 333 333 333 332 333 332 330 331 333 333 332 332 333 332 331 330 331 332 330 330 330 329 330 329 328 330 330 329 328 325 322 320 320 321 321 320 319 320 321 322 322 323
335 334 333 332 331 331 331 331 332 333 333 333 334 334 334 334 334 333 333 333 333 334 334 332 332 332 331 331 331 333 333 332 332 332 332 331 330 331 331 329 329 329 329 331 330 328 329 329 329 328 325 323 321 319 320 319 319 317 317 319 320 321 321
333 334 333 332 331 331 331 331 332 333 333 334 334 334 335 334 334 334 334 334 334 334 334 332 331 331 332 331 331 332 333 333 331 331 331 331 330 331 330 329 328 328 329 330 329 328 327 328 329 328 324 322 321 319 319 318 317 316 316 316 317 318 318
333 335 333 331 332 332 331 332 332 331 332 333 334 334 334 334 334 335 335 334 334 334 334 332 331 331 332 333 332 333 333 332 331 331 330 330 331 332 331 329 328 328 328 328 327 327 326 326 328 327 323 321 320 318 318 317 317 316 315 315 315 315 314
334 335 333 331 332 332 331 332 332 331 332 333 333 333 332 333 334 335 335 335 334 334 334 333 331 331 332 333 333 332 332 332 331 331 330 330 331 332 331 328 327 328 328 327 327 326 326 326 327 326 323 320 318 317 317 316 316 316 315 315 314 313 312
333 334 334 334 333 332 331 332 333 333 333 333 332 332 332 332 331 333 334 334 334 334 334 333 332 331 331 332 332 331 331 332 331 330 330 330 330 330 329 328 329 329 328 327 326 326 326 326 327 327 322 318 316 314 314 315 315 315 314 313 313 311 310
332 333 334 333 333 332 332 333 333 333 332 331 331 331 331 331 331 331 332 332 334 334 334 334 333 332 332 331 331 330 330 331 330 329 329 329 329 330 330 329 330 330 329 327 326 326 326 325 326 326 322 317 317 315 313 314 313 313 313 312 312 310 309
332 333 333 332 332 332 332 332 332 331 331 330 331 330 330 330 330 331 331 331 332 332 333 333 332 332 332 330 330 331 330 331 331 329 328 329 329 330 330 331 330 330 329 327 327 327 326 325 325 327 322 316 317 318 316 315 313 311 311 311 311 311 310
332 332 332 332 332 332 331 331 331 331 331 330 330 330 329 329 329 329 329 330 330 331 332 333 331 331 331 330 330 331 330 330 330 329 328 329 330 330 330 331 330 330 329 329 329 329 327 325 325 326 323 317 317 319 319 318 316 311 311 312 312 313 312
331 331 331 331 332 331 331 331 331 331 331 330 330 329 329 328 328 328 328 329 330 330 330 331 330 330 331 331 331 330 329 329 329 329 329 329 329 329 330 329 329 330 330 329 330 328 326 326 325 324 323 320 316 316 318 319 317 312 310 312 312 312 313
330 330 330 331 331 332 332 331 331 330 330 329 329 328 328 328 327 327 327 328 330 330 330 329 329 329 330 331 331 330 328 329 329 328 328 329 329 330 330 330 330 330 330 329 328 327 325 326 325 323 322 322 319 316 315 316 317 314 310 312 312 312 313
331 331 331 331 331 331 331 331 330 329 328 328 327 327 327 327 327 327 327 327 328 329 329 329 329 328 329 329 331 331 330 330 330 328 327 328 329 330 331 331 330 331 329 328 328 327 326 325 324 323 323 322 319 317 315 314 316 315 312 311 312 311 313
332 332 331 331 331 331 330 329 328 327 327 327 327 326 326 326 326 326 325 326 327 327 328 329 329 328 328 328 329 331 330 330 330 330 328 328 330 330 331 331 331 330 329 328 326 326 326 325 324 324 323 321 318 316 316 315 314 314 313 312 312 311 313
331 331 331 330 330 330 329 328 327 326 327 326 326 326 326 325 324 324 324 324 325 326 326 328 328 327 327 328 328 329 329 328 328 328 328 330 330 330 330 331 331 330 330 328 326 326 326 325 324 324 322 319 317 315 316 315 314 315 315 314 312 311 312
330 330 330 330 330 329 329 328 327 327 326 326 326 326 325 323 323 323 323 324 325 326 326 327 327 327 327 328 328 328 327 326 326 325 326 329 329 328 329 330 330 328 328 327 326 326 325 324 323 323 320 318 316 316 316 316 315 315 316 316 314 312 312
328 329 329 330 329 329 328 327 327 326 325 325 326 324 322 322 322 323 324 324 325 326 327 327 326 326 326 326 327 326 325 325 325 325 325 326 328 328 328 329 329 328 328 327 326 325 324 324 323 321 318 316 315 315 316 316 315 316 316 316 316 313 311
328 328 329 329 329 329 328 327 327 325 324 325 325 323 321 321 322 323 324 324 325 325 325 325 325 324 324 324 324 324 325 324 324 325 324 324 326 328 327 328 329 328 328 327 326 325 323 322 322 320 317 316 316 314 315 317 316 316 317 316 316 315 313
329 329 329 329 329 329 328 326 326 326 325 324 323 321 321 321 322 322 322 322 323 323 324 324 323 324 324 323 323 322 323 323 323 323 322 322 324 324 325 327 327 327 328 328 327 325 324 322 321 320 316 316 316 314 313 317 317 317 318 317 317 316 314
329 329 329 329 329 328 327 327 326 326 325 323 322 321 320 320 321 320 321 321 321 320 320 321 322 323 323 323 322 322 322 322 322 321 321 321 322 322 322 324 324 325 327 328 326 324 325 323 322 320 317 317 317 313 312 316 317 316 318 318 317 316 316
329 329 330 329 329 328 327 327 326 325 323 322 321 320 319 320 320 320 321 322 320 319 319 320 320 321 321 323 323 323 323 322 321 321 321 321 321 321 322 322 322 324 325 325 325 325 325 325 322 320 320 320 319 316 315 317 317 317 318 317 317 317 316
329 329 329 329 329 328 327 326 325 323 322 321 320 319 319 319 320 320 322 321 320 319 318 318 319 319 320 321 322 323 323 322 322 322 321 321 321 321 321 321 322 323 323 323 324 324 324 324 323 322 322 321 320 319 318 319 318 317 318 318 318 318 318
328 328 329 329 327 327 326 325 324 322 320 319 318 318 318 318 320 321 322 321 320 319 317 317 317 318 318 319 320 322 322 322 322 322 321 321 321 321 321 321 321 321 322 322 323 324 323 323 323 322 322 321 320 320 320 320 319 319 319 319 318 318 318
326 327 328 328 327 326 325 323 321 320 319 319 318 317 318 319 321 321 321 320 319 318 316 315 315 316 318 318 319 321 322 321 321 321 320 320 320 319 320 320 320 319 319 319 319 320 321 321 320 320 320 320 320 320 320 320 320 319 319 319 320 319 319
326 326 327 327 326 326 324 323 321 320 320 319 318 319 320 321 321 320 319 318 316 315 314 313 313 314 316 317 318 320 320 320 320 320 319 319 319 319 319 320 319 318 318 318 317 317 317 317 317 316 315 316 316 317 318 319 318 318 317 317 317 319 320
326 326 326 326 325 325 324 324 323 322 322 321 321 322 322 320 319 318 316 314 312 312 312 312 312 312 313 315 316 317 319 320 320 320 320 320 320 320 319 320 319 319 319 318 318 319 319 318 317 317 317 315 314 314 314 315 315 314 313 312 313 315 319
325 325 324 324 324 323 323 324 324 324 324 323 322 321 320 319 317 316 313 311 312 312 312 312 312 312 312 312 313 316 320 321 320 320 320 321 322 321 321 321 321 321 320 319 318 320 321 321 321 321 321 320 319 317 315 314 314 313 313 313 312 312 314
320 320 320 320 321 321 321 321 322 322 322 321 319 318 317 316 315 313 311 311 311 311 311 313 313 313 313 312 313 316 320 321 320 321 322 322 322 322 322 322 322 321 321 321 320 321 321 321 321 321 320 321 321 321 320 319 319 318 318 318 317 315 315
315 316 316 317 317 317 317 318 318 319 319 318 317 316 315 314 312 311 310 310 310 309 310 312 313 314 314 314 316 319 320 320 321 322 323 322 322 323 323 322 321 322 322 322 322 322 321 321 320 320 320 321 322 322 321 321 321 321 321 321 320 319 318
312 312 313 313 313 314 314 315 315 316 316 316 315 315 314 313 311 310 309 308 307 308 307 308 310 313 314 316 318 318 318 319 321 322 322 322 321 323 323 321 320 321 321 322 321 321 320 320 319 319 319 321 322 322 322 322 322 323 323 322 322 321 321
309 309 309 309 310 310 311 312 312 313 313 313 313 313 313 313 311 310 308 306 305 305 305 304 306 309 312 314 315 315 314 316 318 318 317 318 320 321 320 318 316 316 315 315 314 314 313 313 312 311 311 312 313 315 318 320 321 322 322 322 322 322 321
306 307 307 307 307 308 308 308 309 309 310 310 309 309 310 310 309 308 308 307 304 302 302 302 302 304 305 307 310 312 313 313 313 312 311 312 315 317 316 313 312 311 310 308 308 307 307 306 305 304 303 302 302 305 310 313 314 315 316 317 319 319 319
305 305 306 306 306 307 307 307 307 307 307 307 307 307 307 306 305 305 305 306 305 304 304 304 304 304 304 303 304 307 309 309 308 307 306 307 310 312 312 310 310 309 308 307 307 306 306 305 304 302 300 299 298 300 301 302 302 303 304 305 307 309 311
303 304 305 305 306 306 307 307 307 307 306 306 307 307 307 306 305 304 303 303 304 303 303 303 303 303 304 302 301 302 304 304 302 301 302 304 307 308 308 307 307 306 306 306 305 304 302 301 300 299 298 298 297 298 298 298 298 298 298 298 299 300 302
302 302 303 303 304 305 306 306 307 308 307 307 307 307 306 305 303 303 302 302 302 301 301 301 300 299 300 300 299 298 299 299 299 299 299 301 302 302 303 304 304 304 303 303 302 300 299 298 297 297 297 297 298 298 298 298 297 298 297 297 298 298 300
302 302 302 302 303 304 304 305 306 306 307 307 307 307 307 306 306 305 304 304 303 303 303 302 300 299 299 298 298 298 298 297 297 297 297 299 301 300 300 301 302 301 300 300 298 297 297 297 297 298 298 299 299 300 300 300 300 300 300 299 299 300 300
300 301 301 302 302 303 303 304 304 305 305 306 306 305 306 307 307 307 306 306 305 304 303 302 301 300 299 299 298 299 299 298 298 298 299 300 301 301 300 301 300 299 298 297 297 297 298 299 300 301 302 302 303 303 303 303 304 304 303 303 303 303 303

ECMWFFLT1_925_thetae_045.txt.gz
Theta_e
333 333 333 333 333 333 333 333 333 332 331 331 333 334 334 333 331 330 330 331 332 332 332 333 333 331 330 331 331 331 331 332 332 331 331 332 332 332 331 331 331 330 328 329 329 328 329 330 329 328 325 323 324 325 324 324 324 325 325 325 325 324 324
333 332 333 333 333 333 333 333 333 332 332 332 332 333 333 333 332 331 332 333 332 332 332 333 332 331 331 331 331 331 331 331 332 331 331 331 331 331 331 331 331 329 328 328 328 327 327 329 330 327 322 321 322 323 324 324 324 324 325 325 324 323 322
333 333 333 332 333 332 332 332 332 332 333 333 333 333 333 332 332 331 332 334 332 331 332 332 332 331 331 330 331 331 331 331 332 332 330 330 331 330 330 330 330 329 329 329 328 327 327 327 328 325 320 320 321 321 322 323 323 324 324 324 323 322 322
333 333 333 332 332 332 332 332 332 332 332 333 334 335 334 333 333 332 333 333 332 331 331 331 331 331 330 330 331 331 332 332 331 331 330 330 330 331 330 329 330 329 329 329 328 328 327 326 326 324 320 319 320 320 320 320 321 323 323 323 323 322 321
333 332 332 332 332 332 331 331 331 332 332 333 334 334 334 334 333 333 333 332 331 330 329 329 330 331 330 330 330 330 332 332 331 331 331 330 330 331 330 329 329 328 328 329 328 328 327 326 325 323 320 319 319 319 319 317 317 320 323 322 322 321 319
333 332 331 331 331 332 332 331 331 333 333 333 334 334 334 334 333 334 334 332 332 331 328 328 330 330 330 330 330 331 332 332 332 332 332 331 330 330 330 328 329 329 328 328 328 328 327 326 325 322 319 318 318 318 318 317 316 317 320 321 319 318 317
333 332 332 331 331 332 332 331 332 333 333 333 333 334 333 333 334 334 334 333 333 332 329 329 330 330 331 330 330 332 333 332 332 331 332 331 330 330 329 328 328 328 328 327 327 328 327 326 325 321 319 318 317 317 317 318 316 314 316 317 317 315 314
333 332 332 332 332 332 332 331 332 332 333 333 333 333 332 332 333 334 334 333 334 333 330 330 330 330 331 332 332 333 333 331 331 331 331 330 330 331 329 328 327 327 328 327 327 327 326 326 325 322 319 317 316 316 315 316 316 314 313 313 313 313 312
334 333 332 333 332 332 332 332 332 333 333 333 332 332 331 331 331 332 332 333 333 333 331 331 330 330 330 331 332 332 332 332 331 330 330 330 330 331 330 328 327 327 327 327 326 326 325 325 326 323 318 316 316 315 315 315 314 312 311 311 310 310 310
334 332 333 332 332 332 332 333 333 332 332 331 331 331 331 330 330 331 331 332 332 332 332 331 330 330 330 330 330 330 331 331 330 330 330 330 330 330 329 328 328 327 328 327 326 326 325 325 326 324 318 314 314 315 315 316 314 310 310 311 309 308 308
333 333 333 333 332 332 332 332 332 331 331 330 330 330 330 330 329 330 331 331 331 331 332 331 330 330 330 329 329 329 330 331 330 329 329 329 329 329 329 329 329 328 328 327 326 325 325 325 325 325 322 315 312 313 314 315 315 310 309 311 310 309 308
333 333 333 332 332 332 332 331 331 331 330 330 329 329 329 328 328 329 330 330 330 330 330 330 330 330 330 330 330 330 330 330 330 328 328 328 329 329 329 330 330 329 328 328 327 325 325 325 324 325 325 320 314 313 312 312 313 311 310 311 311 311 310
333 332 332 332 332 331 331 331 330 330 329 329 328 328 327 327 328 329 329 329 329 329 329 330 330 329 329 329 330 330 330 329 330 329 328 328 329 329 330 330 330 330 329 329 328 326 324 325 325 324 325 323 320 317 313 311 311 311 311 311 311 311 311
332 332 331 331 331 331 331 330 330 329 328 328 328 327 327 327 326 327 328 329 329 329 328 329 329 328 328 329 330 330 329 329 329 329 328 329 329 329 330 330 329 330 330 329 329 328 324 324 325 324 324 323 322 321 315 310 311 311 311 312 311 312 312
331 331 332 331 331 331 330 330 328 328 327 327 327 327 326 326 326 326 327 328 328 329 329 328 329 328 328 329 330 330 329 329 329 329 329 329 329 330 331 329 329 331 330 329 329 327 325 325 325 325 324 322 322 322 316 310 310 311 311 312 312 312 312
330 331 332 331 331 330 329 328 327 327 326 326 326 326 325 325 325 325 325 326 327 328 328 328 328 328 328 329 329 329 329 329 329 329 329 329 330 330 331 330 329 330 330 329 328 326 325 325 324 324 323 322 322 320 314 311 312 312 312 311 312 312 312
331 331 331 331 330 329 327 327 326 326 325 326 326 325 324 323 323 324 324 325 326 327 327 327 327 327 328 329 328 328 328 327 327 328 328 329 330 330 330 330 330 330 329 328 327 326 325 325 324 324 322 323 323 318 314 312 312 312 312 311 311 312 312
331 331 330 330 329 328 327 326 326 325 325 326 325 323 322 322 323 324 324 324 326 326 326 326 327 327 327 327 327 327 327 326 326 326 328 329 330 329 329 330 331 330 329 328 326 325 326 325 324 324 323 323 321 317 315 314 312 312 313 312 311 312 312
331 330 329 329 328 327 327 326 325 325 325 325 323 321 321 322 323 323 324 325 326 326 325 325 325 325 325 325 325 325 326 325 325 326 326 328 328 328 328 330 330 329 328 327 326 326 326 325 324 323 323 322 318 315 316 315 313 313 313 313 313 312 312
330 330 329 328 328 327 327 326 324 325 325 324 322 321 321 322 323 323 324 325 325 324 324 324 323 323 324 324 324 324 324 324 324 325 325 326 327 327 327 328 328 327 327 326 326 327 326 325 324 322 321 321 317 314 315 316 314 314 314 315 314 313 312
329 330 329 328 327 327 327 325 324 324 324 322 320 320 321 321 321 321 322 322 323 323 323 323 323 323 323 323 323 323 322 322 323 324 324 324 325 326 326 325 325 326 327 326 327 327 326 324 323 321 320 319 316 314 315 316 316 316 316 316 316 315 314
328 329 329 328 327 327 326 325 324 324 323 321 320 320 321 321 320 320 320 320 320 321 322 322 322 322 322 322 322 322 321 321 322 322 323 323 324 325 324 323 323 325 326 327 327 326 325 324 322 321 320 320 317 316 316 317 317 317 317 317 317 317 316
327 327 328 328 327 326 326 325 324 323 321 319 319 320 320 320 320 318 318 318 318 319 319 320 321 321 322 322 322 322 321 321 321 321 321 322 322 323 322 321 322 324 325 325 325 324 324 323 322 321 321 320 319 318 318 318 318 318 318 319 318 318 318
327 327 327 327 327 326 325 324 322 321 320 318 318 320 321 320 319 318 318 317 317 317 317 318 319 320 320 321 322 322 321 321 321 321 320 320 321 321 321 322 322 323 323 323 322 321 321 322 322 321 321 321 320 320 320 319 319 319 318 319 319 319 319
326 326 326 326 326 326 324 323 321 319 318 318 319 320 320 320 318 318 317 317 316 315 316 316 317 318 319 320 321 321 321 321 320 320 320 320 320 320 319 319 319 319 319 319 319 318 318 318 319 319 318 318 318 319 319 319 319 319 318 318 318 317 318
325 325 325 325 325 324 322 321 320 319 318 319 319 319 319 318 317 317 317 317 315 313 313 314 315 317 318 318 319 320 321 320 320 321 321 320 319 318 317 316 316 317 317 318 317 317 317 317 318 318 318 317 317 317 317 317 316 316 316 316 316 314 314
325 325 324 324 324 323 321 321 320 320 320 319 318 318 318 316 315 314 314 314 313 312 312 312 313 315 316 316 318 320 320 320 321 321 321 321 319 318 318 318 318 318 318 319 319 318 318 320 321 321 321 321 321 321 320 319 318 318 317 317 316 316 315
324 323 322 323 322 322 321 321 320 320 319 318 317 317 315 313 311 311 310 311 311 311 311 311 312 313 313 314 318 321 321 321 322 322 322 322 321 320 319 319 319 319 319 319 320 320 320 321 321 320 320 320 321 322 322 321 321 321 320 320 319 319 319
318 318 318 320 320 318 318 318 318 318 317 316 315 314 312 310 309 308 309 310 310 310 310 311 312 313 314 316 318 320 322 322 322 322 322 322 321 321 321 321 321 320 320 319 319 320 320 320 320 319 319 319 320 321 321 321 322 322 322 322 321 321 320
311 312 313 314 315 315 314 314 315 316 315 313 312 310 308 307 307 307 308 308 309 309 309 310 312 314 315 317 319 320 321 321 321 321 322 321 321 321 319 320 320 320 319 318 316 317 317 318 318 317 316 316 317 318 319 320 320 321 321 321 321 321 321
307 309 309 310 310 311 312 312 312 314 314 312 310 308 307 305 305 305 306 306 306 307 306 307 311 313 314 315 317 318 319 319 319 319 319 318 318 317 315 313 314 314 314 312 311 311 311 311 311 310 309 308 308 308 309 311 313 315 316 317 317 317 318
306 307 308 308 308 309 309 309 310 311 312 311 310 309 308 306 304 303 303 303 304 305 304 304 306 310 311 312 313 313 313 314 315 314 314 313 312 312 310 309 309 309 309 308 307 308 307 307 306 304 303 301 300 300 300 300 301 302 304 305 306 306 307
305 306 307 307 307 307 307 308 308 309 309 309 309 308 307 306 304 303 303 303 303 304 304 304 304 305 307 308 309 308 308 309 310 311 311 310 309 309 308 308 307 307 307 307 306 305 303 302 301 300 299 298 298 298 298 297 298 298 298 299 299 299 299
304 304 305 306 307 307 307 308 308 307 307 306 307 306 305 304 303 302 301 302 302 301 302 303 303 304 304 304 305 305 304 303 305 307 308 307 307 307 306 305 305 304 304 303 302 300 299 298 297 297 297 298 298 298 299 299 300 301 302 302 302 302 302
303 303 304 304 305 305 306 307 307 307 306 306 305 304 302 302 302 302 301 301 300 299 299 300 300 301 302 302 302 302 302 300 300 302 303 303 303 303 302 302 301 300 300 299 298 297 297 297 298 299 299 300 301 301 302 303 304 304 304 304 305 305 306
302 302 303 303 303 303 304 305 305 306 306 306 305 303 302 302 302 302 301 300 300 300 299 299 298 298 299 299 299 300 299 298 298 299 300 300 300 300 300 299 298 298 297 297 298 299 299 300 301 302 303 303 304 304 304 304 304 304 304 305 306 306 306
301 301 302 302 302 302 302 303 303 304 304 304 305 305 305 304 304 303 301 300 300 300 300 299 298 298 298 298 299 299 299 299 299 299 300 300 300 299 298 297 298 298 299 300 301 301 302 302 303 304 304 304 305 305 304 304 304 304 304 305 305 305 304

ECMWFFLT1_925_thetae_048.txt.gz
Theta_e
332 332 332 332 332 332 333 334 334 332 331 330 329 331 332 333 333 332 332 333 333 331 330 331 333 332 332 332 332 333 333 332 331 330 331 332 330 330 331 330 330 329 328 328 328 327 329 329 327 327 327 328 328 327 327 327 327 327 327 325 325 324 324
332 332 332 332 331 331 332 333 334 333 333 332 331 332 333 333 333 331 331 332 332 330 329 331 333 332 331 331 332 332 332 332 331 331 331 331 330 330 331 331 330 329 328 328 328 326 327 328 329 327 324 324 325 326 327 327 327 326 326 325 325 324 324
333 332 332 332 331 331 332 332 333 333 333 332 331 332 333 333 332 332 332 332 331 330 330 331 333 332 331 330 331 332 332 332 331 331 331 331 330 330 331 331 330 328 327 327 327 326 326 326 328 326 321 321 323 324 326 327 326 325 325 325 324 323 323
333 332 332 332 331 331 331 332 332 333 332 331 331 332 332 332 333 333 332 331 331 331 331 332 332 332 331 330 330 331 331 332 332 331 331 330 330 330 330 330 329 328 327 327 326 326 326 324 324 322 319 320 322 323 325 326 325 325 324 323 322 321 320
333 332 332 332 331 331 331 332 332 333 332 331 331 332 333 333 333 332 332 331 331 332 332 332 332 332 331 330 330 331 331 331 332 332 331 331 331 330 330 329 329 328 328 328 327 326 326 323 322 320 318 320 321 321 324 325 324 325 324 323 322 321 319
334 332 332 332 331 331 332 332 332 333 332 332 332 332 333 333 333 332 332 332 332 332 332 332 331 331 331 330 330 331 331 330 331 332 331 331 331 330 330 329 329 328 328 328 327 327 326 322 320 318 318 320 319 319 321 322 323 324 324 323 322 321 319
333 332 331 331 331 332 332 332 331 331 332 332 332 333 333 333 332 332 332 332 332 331 331 331 331 331 331 330 329 330 331 331 331 332 331 331 331 330 329 329 329 328 328 328 327 327 326 322 319 318 318 319 318 317 317 318 320 322 321 322 323 320 317
332 332 331 331 331 332 331 331 330 331 331 331 332 333 334 333 332 333 333 332 332 331 331 331 330 330 330 330 329 330 331 332 332 331 331 330 330 330 330 328 328 328 328 328 327 327 326 323 320 319 319 319 318 317 315 315 318 320 321 321 321 320 315
333 332 331 331 331 331 331 330 330 331 331 331 333 333 332 332 332 333 333 332 332 331 331 330 330 330 330 330 330 330 331 332 332 331 331 331 330 330 329 329 328 328 328 328 328 327 327 325 322 319 319 318 318 317 316 316 314 314 318 320 319 318 315
333 332 331 331 331 331 331 331 330 331 332 332 333 333 332 332 333 333 332 332 332 331 331 331 330 330 330 330 330 330 331 332 332 332 331 332 331 330 329 329 327 328 328 327 327 327 327 326 324 321 319 318 317 317 318 319 314 310 314 317 316 316 314
331 332 331 331 331 331 331 331 331 331 332 333 333 333 332 332 333 332 332 332 332 332 332 331 330 330 330 331 330 331 332 332 332 331 331 331 331 330 330 329 328 327 327 327 327 327 326 326 325 323 321 318 317 316 316 318 316 311 312 313 312 314 312
331 332 332 331 331 331 331 331 331 332 333 332 332 332 331 332 333 332 332 332 332 332 332 331 330 330 330 331 331 331 332 332 331 331 330 330 330 331 330 329 327 327 327 327 326 326 326 326 325 323 321 318 316 315 314 315 313 311 312 313 311 311 311
330 330 331 332 331 332 332 331 332 332 332 332 331 331 331 331 332 332 332 332 332 332 331 331 330 330 330 330 331 331 331 331 331 330 330 329 329 331 330 329 328 327 327 327 326 326 326 325 325 325 322 317 314 314 314 313 311 309 311 313 312 311 310
329 327 329 331 332 332 332 332 332 332 332 331 331 331 330 330 330 330 331 331 331 331 330 331 330 330 330 330 329 329 329 330 331 329 329 329 329 330 330 329 328 328 328 328 327 326 325 325 326 325 324 321 316 313 312 312 310 309 309 311 311 311 309
329 327 326 329 332 331 332 333 333 331 330 329 330 329 328 329 330 330 330 330 329 329 329 329 330 329 329 329 329 329 329 329 330 329 328 328 329 329 329 329 329 328 329 328 327 326 326 326 326 326 325 325 321 316 315 313 310 309 310 310 310 310 309
329 328 326 327 330 331 331 332 331 330 329 329 328 328 327 328 329 329 329 329 328 328 328 328 328 328 328 329 329 329 329 329 329 329 328 327 328 329 329 329 329 330 329 329 328 327 327 327 327 326 325 325 323 321 320 317 312 310 310 310 310 310 309
329 328 326 326 329 331 331 330 330 329 328 327 327 326 327 327 328 328 328 329 328 328 328 328 327 328 328 328 329 329 329 329 329 329 328 328 328 328 329 329 329 330 330 329 329 329 329 328 327 326 325 325 324 322 323 319 313 310 311 310 311 311 310
328 328 327 326 327 330 331 329 328 326 326 327 326 326 326 326 327 328 328 329 328 328 328 328 328 328 327 328 328 328 328 328 329 329 328 328 328 328 329 329 329 329 330 330 329 329 329 328 326 325 325 325 324 322 323 319 312 310 311 311 311 311 310
328 327 327 326 325 328 329 328 326 326 326 326 326 325 325 325 326 327 327 328 328 328 327 327 327 327 327 328 328 328 328 328 328 328 328 328 329 329 329 329 329 329 330 330 329 329 328 326 326 325 325 324 323 322 323 319 312 310 311 310 311 311 311
328 328 328 327 325 326 327 327 326 326 325 325 325 324 323 324 325 325 326 328 328 327 327 327 327 327 327 327 327 327 327 326 326 327 328 328 329 329 329 329 329 329 330 329 329 328 326 325 325 325 324 323 323 322 322 318 312 310 311 310 310 311 311
327 328 328 327 326 325 326 326 325 325 325 325 324 322 323 324 324 325 326 327 327 326 326 326 326 326 326 327 327 327 326 326 325 326 327 327 328 329 329 329 330 330 330 329 328 327 326 325 325 325 323 322 321 321 320 316 312 311 311 311 311 312 311
327 327 327 326 326 325 326 325 325 325 324 323 321 322 323 323 323 324 326 326 325 325 324 324 324 324 325 325 325 325 325 325 325 325 326 326 327 328 328 328 330 329 329 328 327 326 326 323 323 323 322 321 320 319 318 315 313 312 312 312 311 311 311
326 327 326 326 325 325 325 325 325 324 322 321 321 322 323 323 323 324 325 324 323 323 323 322 322 322 323 323 323 323 323 323 324 324 324 325 327 328 328 328 329 328 328 328 327 326 325 322 321 321 320 319 318 316 316 315 314 313 314 313 313 312 311
326 326 326 326 326 325 325 325 323 321 321 320 321 322 322 323 324 324 323 323 322 321 322 322 322 322 322 321 321 321 321 322 323 323 323 324 325 327 327 326 327 326 326 325 325 325 324 322 321 320 320 319 318 316 316 316 315 315 316 316 316 315 314
325 326 326 326 325 325 324 323 321 320 320 320 320 320 320 321 321 321 321 321 321 321 321 321 321 321 321 322 321 321 321 321 322 322 323 323 324 325 325 324 325 324 322 320 320 320 321 320 320 319 318 318 317 317 317 317 317 317 317 318 318 316 316
325 326 326 325 325 324 323 321 320 320 319 318 318 318 318 318 318 318 319 319 319 319 320 319 320 320 320 321 321 321 321 320 321 321 322 322 323 323 322 322 321 319 316 315 315 315 316 316 316 315 315 315 315 315 315 315 315 314 314 314 314 313 314
324 325 325 324 324 323 321 319 318 318 317 317 316 316 316 316 316 316 317 318 317 318 318 318 318 319 320 320 320 321 320 320 320 321 321 321 321 320 319 318 317 315 314 314 315 316 316 317 317 316 317 317 317 317 316 316 316 316 316 316 315 315 316
321 322 323 324 323 321 320 318 315 314 314 314 314 314 314 314 314 314 314 315 315 315 316 316 316 319 320 320 320 320 320 320 320 319 318 319 318 317 317 317 317 317 317 318 319 319 320 320 320 320 320 320 320 319 319 318 318 318 318 317 317 317 318
315 316 318 321 321 318 317 316 313 311 311 311 311 312 311 311 312 311 311 312 313 313 313 313 315 318 321 320 320 320 320 320 319 317 317 317 317 316 316 317 317 318 318 319 319 319 319 319 319 319 319 320 320 320 319 319 318 318 318 318 317 317 317
309 310 311 313 315 314 313 311 310 309 309 307 307 307 307 307 307 308 309 311 312 312 313 313 315 319 321 321 321 321 321 319 318 317 316 316 316 315 315 316 317 317 317 317 316 317 317 317 317 316 315 315 315 315 314 313 312 312 312 312 312 311 311
306 307 307 308 309 310 309 308 307 307 306 305 303 303 304 304 304 305 306 308 309 311 312 313 315 319 321 321 321 321 321 320 318 317 315 314 314 314 314 313 314 315 315 313 313 313 314 314 314 312 310 309 308 307 307 306 306 305 304 304 304 303 303
306 306 306 306 307 307 307 306 305 305 304 304 302 302 302 302 302 302 302 303 305 307 308 309 313 317 320 321 321 321 321 320 317 314 313 311 311 311 311 310 310 311 310 309 308 308 309 309 308 306 305 304 302 301 300 301 302 302 302 302 301 301 301
306 306 306 306 306 306 306 305 305 304 303 302 301 301 301 301 301 300 300 301 301 301 302 303 308 313 317 319 320 321 321 320 316 312 310 309 309 308 308 308 307 307 306 305 304 304 304 304 303 301 300 299 299 299 299 300 301 301 302 302 303 303 303
304 305 306 306 306 306 305 305 304 304 303 302 301 301 300 300 300 300 300 300 300 300 300 300 302 307 311 314 316 318 318 318 315 312 309 308 307 306 306 306 305 304 303 302 301 300 300 299 299 298 298 299 300 301 302 302 303 303 303 304 304 304 303
302 303 304 306 306 305 305 304 303 303 303 303 302 301 300 300 300 299 299 299 299 299 300 299 299 301 304 307 310 312 313 312 311 310 308 305 304 303 302 301 301 300 299 299 299 299 299 299 300 300 301 303 303 304 304 303 304 304 304 304 303 302 302
302 302 302 303 303 303 304 304 303 303 302 302 302 301 301 300 300 299 299 298 299 299 299 299 299 299 300 301 303 305 306 306 306 306 305 302 301 300 299 298 298 298 299 299 300 301 301 302 303 303 304 304 304 304 303 303 303 303 303 302 301 301 300
301 301 302 302 302 302 302 303 304 304 303 303 302 301 301 301 301 300 300 300 300 300 299 298 299 299 299 299 300 300 301 301 301 302 301 300 298 298 298 299 299 300 301 301 302 302 303 303 303 304 304 303 303 303 303 302 302 301 301 300 300 299 299